                ,  0.298,  0.397,  0.495,  0.594,  0.692,  0.791,  0.889,  0.988,  1.086,  1.185,  1.283,  1.382,  1.480,  1.579,  1.677,  1.776,  1.874,  1.973,  2.071,  2.170,  2.268,  2.367,  2.465,  2.564,  2.662,  2.761,  2.859,  2.957,  3.056,  3.154,  3.253,  3.351,  3.450,  3.548,  3.647,  3.745,  3.844,  3.942,  4.041,  4.139,  4.238,  4.336,  4.435,  4.533,  4.632,  4.730,  4.829,  4.927,  5.026,  5.124,  5.223,  5.321,  5.419,  5.518,  5.616,  5.715,  5.813,  5.912,  6.010,  6.109,  6.207,  6.306,  6.404,  6.503,  6.601,  6.700,  6.798,  6.897,  6.995,  7.094,  7.192,  7.291,  7.389,  7.488,  7.586,  7.685,  7.783,  7.882,  7.980,  8.078
2012/06/08 00:00,  999.0,  999.0,    1.7,    1.7,    2.9,    3.0,    2.1,    2.7,    2.9,  999.0,    4.7,    6.3,    7.4,    7.9,   10.0,   12.4,  999.0,    8.0,    9.5,   12.5,   12.0,  999.0,  999.0,  999.0,  999.0,  999.0,  999.0,  999.0,  999.0,  999.0,  999.0,  999.0,  999.0,  999.0,  999.0,  999.0,  999.0,  999.0,  999.0,  999.0,   11.8,  999.0,   11.9,   12.4,   13.6,   16.1,  999.0,   17.8,  999.0,  999.0,  999.0,  999.0,   15.1,  999.0,  999.0,  999.0,  999.0,  999.0,  999.0,  999.0,  999.0,  999.0,  999.0,  999.0,  999.0,  999.0,  999.0,  999.0,  999.0,  999.0,  999.0,  999.0,  999.0,  999.0,  999.0,  999.0,  999.0,  999.0,  999.0,  999.0
2012/06/08 00:10,  999.0,  999.0,  999.0,    2.1,    2.3,    3.8,    2.6,    3.7,    3.2,    3.1,    4.7,    5.9,    6.9,    7.6,    9.9,  999.0,  999.0,  999.0,   10.0,   11.6,   12.9,  999.0,  999.0,  999.0,  999.0,  999.0,  999.0,  999.0,  999.0,  999.0,  999.0,  999.0,  999.0,  999.0,  999.0,  999.0,  999.0,  999.0,  999.0,   10.7,   11.7,   11.1,   10.9,   11.2,   13.3,   16.0,  999.0,  999.0,  999.0,  999.0,  999.0,  999.0,   15.6,  999.0,  999.0,  999.0,  999.0,  999.0,  999.0,  999.0,  999.0,  999.0,  999.0,  999.0,  999.0,  999.0,  999.0,  999.0,  999.0,  999.0,  999.0,  999.0,  999.0,  999.0,  999.0,  999.0,  999.0,  999.0,  999.0,  999.0
2012/06/08 00:20,  999.0,  999.0,    2.1,    2.5,    3.2,    4.1,    3.9,    3.6,    4.0,    3.9,    5.9,    6.5,    7.4,    8.8,    9.8,   12.2,   12.1,   11.8,   13.0,   12.0,   13.0,   15.1,  999.0,  999.0,  999.0,  999.0,  999.0,  999.0,  999.0,  999.0,  999.0,  999.0,  999.0,  999.0,  999.0,  999.0,  999.0,  999.0,  999.0,   11.1,   11.8,  999.0,   11.2,   11.5,   13.0,   14.5,  999.0,  999.0,  999.0,  999.0,  999.0,  999.0,  999.0,  999.0,  999.0,  999.0,  999.0,  999.0,  999.0,  999.0,  999.0,  999.0,  999.0,  999.0,  999.0,  999.0,  999.0,  999.0,  999.0,  999.0,  999.0,  999.0,  999.0,  999.0,  999.0,  999.0,  999.0,  999.0,  999.0,  999.0
2012/06/08 00:30,  999.0,  999.0,    1.8,    1.8,    3.1,    3.3,    3.8,    3.8,    4.7,    4.1,    5.5,    6.3,    7.1,    8.4,   11.6,   11.1,   12.2,   12.5,   11.4,   13.8,   15.6,  999.0,  999.0,  999.0,  999.0,  999.0,  999.0,  999.0,  999.0,  999.0,  999.0,  999.0,  999.0,  999.0,  999.0,  999.0,  999.0,  999.0,  999.0,  999.0,  999.0,  999.0,  999.0,  999.0,   12.2,   14.5,  999.0,  999.0,  999.0,  999.0,  999.0,  999.0,  999.0,  999.0,  999.0,  999.0,  999.0,  999.0,  999.0,  999.0,  999.0,  999.0,  999.0,  999.0,  999.0,  999.0,  999.0,  999.0,  999.0,  999.0,  999.0,  999.0,  999.0,  999.0,  999.0,  999.0,  999.0,  999.0,  999.0,  999.0
2012/06/08 00:40,  999.0,  999.0,  999.0,  999.0,    2.3,    2.4,    3.3,    3.8,    4.2,    4.9,    5.9,    7.0,    8.1,    8.4,   12.5,  999.0,    9.9,  999.0,   13.0,   13.3,  999.0,  999.0,  999.0,  999.0,  999.0,  999.0,  999.0,  999.0,  999.0,  999.0,  999.0,  999.0,  999.0,  999.0,  999.0,  999.0,  999.0,  999.0,  999.0,  999.0,   11.0,  999.0,  999.0,  999.0,   12.3,   14.8,  999.0,  999.0,  999.0,  999.0,  999.0,  999.0,  999.0,  999.0,  999.0,  999.0,  999.0,  999.0,  999.0,  999.0,  999.0,  999.0,  999.0,  999.0,  999.0,  999.0,  999.0,  999.0,  999.0,  999.0,  999.0,  999.0,  999.0,  999.0,  999.0,  999.0,  999.0,  999.0,  999.0,  999.0
2012/06/08 00:50,  999.0,  999.0,  999.0,    3.0,    2.6,    2.7,    3.7,    4.1,    4.4,    5.2,    5.0,    5.8,    7.6,    8.0,   10.6,   10.0,  999.0,  999.0,  999.0,  999.0,  999.0,  999.0,  999.0,  999.0,  999.0,  999.0,  999.0,  999.0,  999.0,  999.0,  999.0,  999.0,  999.0,  999.0,  999.0,  999.0,  999.0,  999.0,  999.0,  999.0,   11.1,   10.5,  999.0,   10.4,   11.6,   12.6,  999.0,  999.0,  999.0,  999.0,  999.0,  999.0,  999.0,  999.0,  999.0,  999.0,  999.0,  999.0,  999.0,  999.0,  999.0,  999.0,  999.0,  999.0,  999.0,  999.0,  999.0,  999.0,  999.0,  999.0,  999.0,  999.0,  999.0,  999.0,  999.0,  999.0,  999.0,  999.0,  999.0,  999.0
2012/06/08 01:00,  999.0,  999.0,  999.0,    2.3,    2.2,    2.9,    3.3,    3.6,    5.0,    6.2,    5.6,    5.6,    7.8,    8.4,   10.1,   10.8,  999.0,    9.3,   11.1,  999.0,  999.0,  999.0,  999.0,  999.0,  999.0,  999.0,  999.0,  999.0,  999.0,  999.0,  999.0,  999.0,  999.0,  999.0,  999.0,  999.0,  999.0,  999.0,  999.0,  999.0,   10.9,   10.9,   11.1,  999.0,   10.2,   12.1,  999.0,  999.0,  999.0,  999.0,  999.0,  999.0,  999.0,  999.0,  999.0,  999.0,  999.0,  999.0,  999.0,  999.0,  999.0,  999.0,  999.0,  999.0,  999.0,  999.0,  999.0,  999.0,  999.0,  999.0,  999.0,  999.0,  999.0,  999.0,  999.0,  999.0,  999.0,  999.0,  999.0,  999.0
2012/06/08 01:10,  999.0,  999.0,  999.0,    2.3,    2.8,    3.9,    3.9,    4.6,    6.0,    6.8,    6.0,    6.4,    7.7,    9.8,  999.0,  999.0,  999.0,  999.0,  999.0,  999.0,  999.0,  999.0,  999.0,  999.0,  999.0,  999.0,  999.0,  999.0,  999.0,  999.0,    9.9,   11.2,  999.0,  999.0,  999.0,  999.0,  999.0,  999.0,  999.0,  999.0,    9.2,   10.5,  999.0,  999.0,   10.5,  999.0,  999.0,  999.0,  999.0,  999.0,  999.0,  999.0,  999.0,  999.0,  999.0,  999.0,  999.0,  999.0,  999.0,  999.0,  999.0,  999.0,  999.0,  999.0,  999.0,  999.0,  999.0,  999.0,  999.0,  999.0,  999.0,  999.0,  999.0,  999.0,  999.0,   12.9,  999.0,  999.0,  999.0,  999.0
2012/06/08 01:20,  999.0,  999.0,  999.0,    1.5,    1.2,    2.8,  999.0,    3.3,    5.4,    6.5,    5.0,    5.2,    6.1,    8.1,    9.4,    9.2,  999.0,    9.9,  999.0,   12.1,   13.9,  999.0,  999.0,  999.0,  999.0,  999.0,  999.0,  999.0,  999.0,    9.6,    9.7,  999.0,  999.0,  999.0,  999.0,  999.0,  999.0,  999.0,  999.0,  999.0,  999.0,  999.0,  999.0,  999.0,  999.0,  999.0,  999.0,  999.0,  999.0,  999.0,  999.0,  999.0,  999.0,  999.0,  999.0,  999.0,  999.0,  999.0,  999.0,  999.0,  999.0,  999.0,  999.0,  999.0,  999.0,  999.0,  999.0,  999.0,  999.0,  999.0,  999.0,  999.0,  999.0,  999.0,  999.0,  999.0,  999.0,  999.0,  999.0,  999.0
2012/06/08 01:30,  999.0,  999.0,  999.0,    1.4,    2.4,    2.2,    2.9,    4.1,    5.6,    6.1,    5.9,    5.0,    6.1,    7.2,    9.0,    9.6,    9.2,   10.0,   13.8,   11.2,   13.1,  999.0,  999.0,  999.0,  999.0,  999.0,  999.0,  999.0,  999.0,  999.0,   10.2,  999.0,  999.0,  999.0,  999.0,  999.0,  999.0,  999.0,  999.0,  999.0,  999.0,  999.0,  999.0,   11.6,  999.0,  999.0,  999.0,  999.0,  999.0,  999.0,  999.0,  999.0,  999.0,  999.0,  999.0,  999.0,  999.0,  999.0,  999.0,  999.0,  999.0,  999.0,  999.0,  999.0,  999.0,  999.0,  999.0,  999.0,  999.0,  999.0,  999.0,  999.0,  999.0,  999.0,  999.0,  999.0,  999.0,  999.0,  999.0,  999.0
2012/06/08 01:40,  999.0,  999.0,    1.6,    2.2,    2.2,    2.9,    3.5,    4.5,    4.8,    5.5,    5.1,    5.0,    6.2,    7.8,    9.5,    9.5,    9.0,   10.3,   11.6,   13.2,   14.8,  999.0,   15.0,  999.0,  999.0,  999.0,  999.0,  999.0,  999.0,  999.0,   10.7,   10.3,  999.0,  999.0,    9.4,   11.1,  999.0,  999.0,   10.8,   10.1,  999.0,    9.6,   10.9,  999.0,  999.0,  999.0,  999.0,  999.0,  999.0,  999.0,  999.0,  999.0,  999.0,  999.0,  999.0,  999.0,  999.0,  999.0,  999.0,  999.0,  999.0,  999.0,  999.0,  999.0,  999.0,  999.0,  999.0,  999.0,  999.0,  999.0,  999.0,  999.0,  999.0,  999.0,  999.0,  999.0,  999.0,  999.0,  999.0,  999.0
2012/06/08 01:50,  999.0,  999.0,  999.0,    0.7,    2.0,    2.1,    3.1,    3.2,    4.2,    4.3,    3.9,    3.9,    5.2,    6.9,    8.3,    9.2,    8.3,    9.4,   10.7,   12.8,   14.1,  999.0,  999.0,  999.0,  999.0,  999.0,  999.0,  999.0,  999.0,  999.0,    9.5,   10.9,  999.0,  999.0,   10.6,   12.2,   13.9,   10.8,   12.1,    9.4,   10.6,   11.2,  999.0,  999.0,  999.0,  999.0,  999.0,  999.0,  999.0,  999.0,  999.0,  999.0,  999.0,  999.0,  999.0,  999.0,  999.0,  999.0,  999.0,  999.0,  999.0,  999.0,  999.0,  999.0,  999.0,  999.0,  999.0,  999.0,  999.0,  999.0,  999.0,   10.2,  999.0,  999.0,  999.0,  999.0,  999.0,  999.0,  999.0,  999.0
2012/06/08 02:00,  999.0,  999.0,  999.0,    1.6,    1.2,    2.3,    2.8,    4.0,    4.1,    4.4,    3.7,    4.9,    6.4,    8.1,    8.7,    9.2,    8.6,   10.0,   10.2,   12.0,   12.6,   12.1,  999.0,  999.0,  999.0,  999.0,  999.0,  999.0,   11.1,   11.2,  999.0,  999.0,  999.0,  999.0,  999.0,   12.2,   12.5,   11.8,   10.8,  999.0,   10.8,   11.8,  999.0,  999.0,  999.0,  999.0,  999.0,  999.0,  999.0,  999.0,  999.0,  999.0,  999.0,  999.0,  999.0,  999.0,  999.0,  999.0,  999.0,  999.0,  999.0,  999.0,  999.0,  999.0,  999.0,  999.0,  999.0,  999.0,  999.0,  999.0,  999.0,  999.0,  999.0,  999.0,  999.0,  999.0,  999.0,  999.0,  999.0,  999.0
2012/06/08 02:10,  999.0,  999.0,  999.0,    1.4,    1.3,    2.2,    3.0,    4.3,    4.3,    4.1,    4.4,    4.9,    6.1,    7.9,    8.8,    9.6,    8.9,    9.3,   10.3,  999.0,   12.3,   12.5,   10.9,  999.0,  999.0,  999.0,  999.0,  999.0,  999.0,  999.0,  999.0,  999.0,  999.0,   11.0,   13.0,  999.0,  999.0,  999.0,   11.0,  999.0,   10.3,   11.5,   13.0,  999.0,  999.0,  999.0,  999.0,  999.0,  999.0,  999.0,  999.0,  999.0,  999.0,  999.0,  999.0,  999.0,  999.0,  999.0,  999.0,  999.0,  999.0,  999.0,  999.0,  999.0,  999.0,  999.0,  999.0,  999.0,  999.0,  999.0,  999.0,  999.0,  999.0,  999.0,  999.0,  999.0,  999.0,  999.0,   12.0,  999.0
2012/06/08 02:20,  999.0,  999.0,  999.0,    1.1,    2.1,    2.3,    3.3,    4.5,    4.2,    4.2,    3.9,    4.7,    6.0,    8.2,    8.9,    9.2,    9.6,    9.7,  999.0,   10.6,   12.4,   12.3,   10.1,  999.0,  999.0,  999.0,  999.0,  999.0,  999.0,  999.0,  999.0,  999.0,  999.0,   11.0,   12.8,   13.4,  999.0,  999.0,   10.5,   11.1,  999.0,   11.7,   12.8,  999.0,  999.0,  999.0,  999.0,  999.0,  999.0,  999.0,  999.0,  999.0,  999.0,  999.0,  999.0,  999.0,  999.0,  999.0,  999.0,  999.0,  999.0,  999.0,  999.0,  999.0,  999.0,  999.0,  999.0,  999.0,  999.0,  999.0,  999.0,  999.0,  999.0,  999.0,  999.0,  999.0,  999.0,  999.0,  999.0,  999.0
2012/06/08 02:30,  999.0,  999.0,  999.0,    1.7,  999.0,    2.8,    3.5,    5.1,    6.1,    4.5,    3.6,    4.5,    5.4,    7.4,    8.5,    9.2,    9.5,    9.6,  999.0,   10.0,   11.3,   12.0,   11.9,    9.7,  999.0,  999.0,  999.0,    7.4,  999.0,  999.0,  999.0,  999.0,  999.0,  999.0,   12.3,   13.5,  999.0,  999.0,  999.0,   10.7,   10.6,  999.0,   12.8,  999.0,  999.0,  999.0,  999.0,  999.0,  999.0,  999.0,  999.0,  999.0,  999.0,  999.0,  999.0,  999.0,  999.0,  999.0,  999.0,  999.0,  999.0,  999.0,  999.0,  999.0,  999.0,  999.0,  999.0,  999.0,  999.0,  999.0,  999.0,  999.0,  999.0,  999.0,  999.0,  999.0,  999.0,  999.0,  999.0,  999.0
2012/06/08 02:40,  999.0,  999.0,  999.0,    0.5,    0.1,    1.0,    2.1,    4.6,    5.6,  999.0,    4.4,    4.2,    4.9,    6.3,    8.4,    9.1,    9.9,    9.3,  999.0,  999.0,   11.2,   12.0,   12.0,   10.2,  999.0,  999.0,  999.0,  999.0,  999.0,  999.0,  999.0,  999.0,   10.6,   11.6,  999.0,   13.0,  999.0,   11.9,   11.3,   10.7,   11.2,   11.8,   13.6,  999.0,  999.0,  999.0,  999.0,  999.0,  999.0,  999.0,  999.0,  999.0,  999.0,  999.0,  999.0,  999.0,  999.0,  999.0,  999.0,  999.0,  999.0,  999.0,  999.0,  999.0,  999.0,  999.0,  999.0,  999.0,  999.0,  999.0,  999.0,  999.0,  999.0,  999.0,  999.0,  999.0,  999.0,  999.0,  999.0,  999.0
2012/06/08 02:50,  999.0,  999.0,  999.0,   -0.4,    1.8,    2.7,    2.3,    4.4,  999.0,  999.0,    4.2,    4.4,    4.7,    5.6,    8.2,    8.7,    9.6,  999.0,   10.1,   10.6,   10.6,   12.1,  999.0,    9.0,  999.0,  999.0,  999.0,  999.0,  999.0,  999.0,    9.5,   10.6,   10.9,   11.2,   12.3,  999.0,  999.0,   11.7,   12.8,  999.0,  999.0,   12.5,  999.0,  999.0,  999.0,  999.0,  999.0,  999.0,  999.0,  999.0,  999.0,  999.0,  999.0,  999.0,  999.0,  999.0,  999.0,  999.0,  999.0,  999.0,  999.0,  999.0,  999.0,  999.0,  999.0,  999.0,  999.0,  999.0,  999.0,  999.0,  999.0,  999.0,  999.0,  999.0,  999.0,  999.0,  999.0,  999.0,  999.0,  999.0
2012/06/08 03:00,  999.0,  999.0,  999.0,    1.9,    2.7,    2.8,    3.4,    5.3,    5.8,  999.0,    4.1,    5.0,    5.1,    5.8,    8.0,    8.3,    9.5,    9.9,   11.2,   10.9,   10.6,  999.0,  999.0,    8.7,    8.8,  999.0,  999.0,  999.0,  999.0,  999.0,  999.0,    9.9,   10.7,   10.7,   11.8,  999.0,   11.6,   12.0,   10.8,   10.3,   10.3,   11.9,   14.1,  999.0,  999.0,  999.0,  999.0,  999.0,  999.0,  999.0,  999.0,  999.0,  999.0,  999.0,  999.0,  999.0,  999.0,  999.0,  999.0,  999.0,  999.0,  999.0,  999.0,  999.0,  999.0,  999.0,  999.0,  999.0,  999.0,  999.0,  999.0,  999.0,  999.0,  999.0,  999.0,  999.0,  999.0,  999.0,   12.8,  999.0
2012/06/08 03:10,  999.0,  999.0,  999.0,    2.1,    2.9,  999.0,  999.0,    5.6,    5.9,  999.0,    3.7,    4.9,    5.9,    6.3,    8.2,    8.8,   10.6,   12.4,   10.4,   10.8,  999.0,  999.0,  999.0,    9.8,    8.6,  999.0,  999.0,    7.4,  999.0,  999.0,  999.0,    8.8,    9.8,   10.4,   11.8,  999.0,  999.0,  999.0,   10.6,   10.2,   10.8,   12.3,  999.0,  999.0,  999.0,  999.0,  999.0,  999.0,  999.0,  999.0,  999.0,  999.0,  999.0,  999.0,  999.0,  999.0,  999.0,  999.0,  999.0,  999.0,  999.0,  999.0,  999.0,  999.0,  999.0,  999.0,  999.0,  999.0,  999.0,  999.0,  999.0,  999.0,  999.0,  999.0,  999.0,  999.0,  999.0,  999.0,  999.0,  999.0
2012/06/08 03:20,  999.0,  999.0,  999.0,    2.2,    2.6,    2.0,    2.4,    5.1,    5.9,    5.9,    5.4,    5.1,    5.8,    7.5,    8.5,    9.6,   10.7,   11.5,   10.9,   11.4,   12.2,  999.0,   12.0,   10.7,    8.9,    8.1,  999.0,  999.0,  999.0,  999.0,  999.0,  999.0,    9.6,   11.0,   12.1,  999.0,  999.0,  999.0,   10.6,   10.7,   12.4,  999.0,  999.0,  999.0,  999.0,  999.0,  999.0,  999.0,  999.0,  999.0,  999.0,  999.0,  999.0,  999.0,  999.0,  999.0,  999.0,  999.0,  999.0,  999.0,  999.0,  999.0,  999.0,  999.0,  999.0,  999.0,  999.0,  999.0,  999.0,  999.0,  999.0,  999.0,  999.0,  999.0,  999.0,  999.0,  999.0,  999.0,  999.0,  999.0
2012/06/08 03:30,  999.0,  999.0,  999.0,    1.6,    3.6,    2.7,    3.4,    4.4,    5.2,  999.0,    5.1,    6.0,    7.3,    7.7,  999.0,   10.0,   10.1,   10.7,   10.6,   11.2,   11.8,   11.7,   12.2,   11.1,    9.0,    8.7,  999.0,  999.0,  999.0,  999.0,  999.0,  999.0,  999.0,   10.8,  999.0,    9.7,  999.0,  999.0,  999.0,   11.1,   12.1,  999.0,  999.0,  999.0,  999.0,  999.0,  999.0,  999.0,  999.0,  999.0,  999.0,  999.0,  999.0,  999.0,  999.0,  999.0,  999.0,  999.0,  999.0,  999.0,  999.0,  999.0,  999.0,  999.0,  999.0,  999.0,  999.0,  999.0,  999.0,  999.0,  999.0,  999.0,  999.0,  999.0,  999.0,  999.0,  999.0,  999.0,  999.0,   14.1
2012/06/08 03:40,  999.0,  999.0,  999.0,    3.4,    2.3,    4.0,    3.7,    4.2,    4.6,    7.0,    6.6,    6.6,    7.2,    8.3,    9.7,   10.2,   10.7,   10.2,   11.5,  999.0,   12.7,   11.4,   12.6,   12.3,   11.3,    8.7,    9.0,  999.0,  999.0,  999.0,  999.0,  999.0,  999.0,  999.0,    9.1,    9.5,   10.4,  999.0,  999.0,  999.0,   10.4,  999.0,  999.0,  999.0,  999.0,  999.0,  999.0,  999.0,  999.0,  999.0,  999.0,  999.0,  999.0,  999.0,  999.0,  999.0,  999.0,  999.0,  999.0,  999.0,  999.0,  999.0,  999.0,  999.0,  999.0,  999.0,  999.0,  999.0,  999.0,  999.0,  999.0,  999.0,  999.0,  999.0,  999.0,  999.0,  999.0,  999.0,  999.0,  999.0
2012/06/08 03:50,  999.0,  999.0,    2.8,  999.0,    3.4,    2.9,    2.6,    3.3,    4.6,    6.8,  999.0,    6.6,    7.2,    9.0,   10.0,   10.3,   11.1,   12.0,   12.7,   11.7,   11.4,   12.0,   12.5,   11.9,  999.0,    8.8,    8.9,    9.7,  999.0,  999.0,  999.0,  999.0,  999.0,  999.0,  999.0,   10.4,  999.0,  999.0,  999.0,  999.0,  999.0,  999.0,  999.0,  999.0,  999.0,  999.0,  999.0,  999.0,  999.0,  999.0,  999.0,  999.0,  999.0,  999.0,  999.0,  999.0,  999.0,  999.0,  999.0,  999.0,  999.0,  999.0,  999.0,  999.0,  999.0,  999.0,  999.0,  999.0,  999.0,  999.0,  999.0,  999.0,  999.0,  999.0,  999.0,  999.0,  999.0,  999.0,  999.0,  999.0
2012/06/08 04:00,  999.0,  999.0,    3.2,    3.2,  999.0,    2.6,    2.2,    3.0,    4.7,    5.3,  999.0,    6.5,    7.2,    8.9,    9.0,    9.9,   10.5,   11.2,   10.7,   11.3,   10.6,   11.3,   11.8,   10.6,  999.0,  999.0,    8.5,    9.1,  999.0,  999.0,  999.0,  999.0,  999.0,  999.0,  999.0,   11.2,  999.0,   10.3,   10.5,   11.7,  999.0,  999.0,  999.0,  999.0,  999.0,  999.0,  999.0,  999.0,  999.0,  999.0,  999.0,  999.0,  999.0,  999.0,  999.0,  999.0,  999.0,  999.0,  999.0,  999.0,  999.0,  999.0,  999.0,  999.0,  999.0,  999.0,  999.0,  999.0,  999.0,  999.0,   13.0,  999.0,  999.0,  999.0,  999.0,  999.0,  999.0,   13.1,  999.0,  999.0
2012/06/08 04:10,  999.0,  999.0,  999.0,    2.2,    2.6,    2.4,    1.9,    2.8,    4.5,    5.2,  999.0,    6.3,    7.5,    8.9,    9.3,    9.4,   10.3,   10.5,    9.9,   10.3,   10.5,   11.0,   11.1,   12.1,   10.3,    9.4,    8.9,    8.9,    9.1,  999.0,  999.0,  999.0,  999.0,  999.0,  999.0,   10.7,   11.2,   10.0,   11.4,   13.5,  999.0,  999.0,  999.0,  999.0,  999.0,  999.0,  999.0,  999.0,  999.0,  999.0,  999.0,  999.0,  999.0,  999.0,  999.0,  999.0,  999.0,  999.0,  999.0,  999.0,  999.0,  999.0,  999.0,  999.0,  999.0,  999.0,  999.0,  999.0,  999.0,  999.0,  999.0,  999.0,  999.0,  999.0,  999.0,  999.0,  999.0,  999.0,  999.0,  999.0
2012/06/08 04:20,  999.0,  999.0,    3.6,    3.5,    3.0,    2.4,    2.5,    3.0,    4.5,    5.9,    6.2,    7.8,    9.1,    9.6,    9.6,   10.2,   10.8,   10.3,   10.0,   10.6,    9.5,   10.8,   11.0,   11.5,   10.7,   10.6,   10.2,    9.3,    9.5,  999.0,  999.0,  999.0,  999.0,  999.0,  999.0,   10.5,    9.7,    9.7,   10.4,  999.0,  999.0,  999.0,  999.0,  999.0,  999.0,  999.0,  999.0,  999.0,  999.0,  999.0,  999.0,  999.0,  999.0,  999.0,  999.0,  999.0,  999.0,  999.0,  999.0,  999.0,  999.0,  999.0,  999.0,  999.0,  999.0,  999.0,  999.0,  999.0,  999.0,  999.0,  999.0,  999.0,  999.0,  999.0,  999.0,  999.0,  999.0,  999.0,  999.0,  999.0
2012/06/08 04:30,  999.0,  999.0,    4.1,    3.3,    3.4,    3.4,    3.3,    3.9,    5.2,    5.9,    6.8,    8.5,    9.5,    9.9,   10.0,   10.4,   10.9,   10.6,   10.4,    9.7,   10.2,   11.0,   11.0,   11.2,   11.6,   10.3,   10.8,    9.4,    9.6,  999.0,  999.0,  999.0,  999.0,  999.0,  999.0,  999.0,  999.0,    9.7,   11.1,  999.0,  999.0,  999.0,  999.0,  999.0,  999.0,  999.0,  999.0,  999.0,  999.0,  999.0,  999.0,  999.0,  999.0,  999.0,  999.0,  999.0,  999.0,  999.0,  999.0,  999.0,  999.0,  999.0,  999.0,  999.0,  999.0,  999.0,  999.0,  999.0,  999.0,  999.0,  999.0,  999.0,  999.0,  999.0,  999.0,  999.0,  999.0,  999.0,  999.0,  999.0
2012/06/08 04:40,  999.0,  999.0,    3.1,    2.9,    3.8,    3.9,    4.0,    4.7,    5.3,    6.8,    8.2,    9.6,    9.8,   10.3,    9.9,   10.5,   10.4,   10.2,    9.8,    9.2,    9.3,   10.0,   11.6,   11.3,   10.6,    9.6,   10.0,    8.7,  999.0,    9.7,  999.0,  999.0,  999.0,  999.0,  999.0,  999.0,    9.6,  999.0,  999.0,  999.0,  999.0,  999.0,  999.0,  999.0,  999.0,  999.0,  999.0,  999.0,  999.0,  999.0,  999.0,  999.0,  999.0,  999.0,  999.0,  999.0,  999.0,  999.0,  999.0,  999.0,  999.0,  999.0,  999.0,  999.0,  999.0,  999.0,  999.0,  999.0,  999.0,  999.0,  999.0,  999.0,  999.0,  999.0,  999.0,  999.0,  999.0,  999.0,  999.0,  999.0
2012/06/08 04:50,  999.0,  999.0,  999.0,    3.3,    4.3,    3.6,    4.3,    5.3,    5.6,    7.2,    8.5,    9.3,   10.2,   10.2,    9.9,    9.7,    9.6,    9.2,    8.8,    8.7,    8.7,    8.6,   10.5,   10.8,   10.9,    9.3,    9.8,    8.2,  999.0,    8.4,  999.0,  999.0,  999.0,  999.0,  999.0,    9.8,  999.0,  999.0,  999.0,  999.0,  999.0,  999.0,  999.0,  999.0,  999.0,  999.0,  999.0,  999.0,  999.0,  999.0,  999.0,  999.0,  999.0,  999.0,  999.0,  999.0,  999.0,  999.0,  999.0,  999.0,  999.0,  999.0,  999.0,  999.0,  999.0,  999.0,  999.0,  999.0,  999.0,  999.0,  999.0,  999.0,  999.0,  999.0,  999.0,  999.0,  999.0,   10.1,   10.1,  999.0
2012/06/08 05:00,  999.0,  999.0,  999.0,    2.8,    3.8,    3.7,    4.7,    5.5,    6.4,    6.5,    7.8,    9.4,   10.5,   10.5,    9.8,    9.5,    9.4,    9.0,    8.4,    8.4,    8.7,    9.6,   11.8,   12.7,   12.7,   10.0,   10.2,  999.0,  999.0,  999.0,  999.0,  999.0,  999.0,  999.0,  999.0,  999.0,  999.0,  999.0,  999.0,  999.0,  999.0,  999.0,  999.0,  999.0,  999.0,  999.0,  999.0,  999.0,  999.0,  999.0,  999.0,  999.0,  999.0,  999.0,  999.0,  999.0,  999.0,  999.0,  999.0,  999.0,  999.0,  999.0,  999.0,  999.0,  999.0,  999.0,  999.0,  999.0,  999.0,  999.0,  999.0,  999.0,  999.0,  999.0,  999.0,  999.0,  999.0,   10.1,  999.0,   10.1
2012/06/08 05:10,  999.0,  999.0,  999.0,    3.0,    3.4,    4.3,    5.1,    6.3,    6.0,    7.1,    8.3,   10.0,   11.2,   10.8,    9.9,    9.5,    9.0,    8.4,    8.3,    8.3,    8.4,    9.8,  999.0,   13.0,   12.8,   11.3,    9.9,    9.7,  999.0,  999.0,  999.0,  999.0,  999.0,  999.0,  999.0,  999.0,  999.0,  999.0,   10.0,  999.0,  999.0,  999.0,  999.0,  999.0,  999.0,  999.0,  999.0,  999.0,  999.0,  999.0,  999.0,  999.0,  999.0,  999.0,  999.0,  999.0,  999.0,  999.0,  999.0,  999.0,  999.0,  999.0,  999.0,  999.0,  999.0,  999.0,  999.0,  999.0,  999.0,   10.0,  999.0,   10.0,  999.0,  999.0,  999.0,  999.0,  999.0,  999.0,  999.0,  999.0
2012/06/08 05:20,  999.0,  999.0,  999.0,    2.3,    2.0,    3.4,    4.7,    5.7,    6.0,    6.9,    8.5,   10.2,   10.7,   11.1,   10.2,    9.2,    8.8,    8.5,    8.5,    8.9,    8.5,    9.6,  999.0,   13.7,   12.4,  999.0,   10.3,    9.3,  999.0,  999.0,  999.0,  999.0,  999.0,    7.1,    7.1,    8.0,  999.0,  999.0,  999.0,  999.0,  999.0,  999.0,  999.0,  999.0,  999.0,  999.0,  999.0,  999.0,  999.0,  999.0,  999.0,  999.0,  999.0,  999.0,  999.0,  999.0,  999.0,  999.0,  999.0,  999.0,  999.0,  999.0,  999.0,  999.0,  999.0,  999.0,  999.0,  999.0,  999.0,  999.0,  999.0,  999.0,  999.0,  999.0,  999.0,   10.0,   10.0,  999.0,  999.0,  999.0
2012/06/08 05:30,  999.0,  999.0,  999.0,    2.6,    2.5,    3.5,    4.4,    5.0,    6.3,    7.8,    8.9,    9.9,   10.5,   10.2,   10.3,  999.0,    8.2,    7.6,    8.0,    8.3,    8.3,    9.2,  999.0,   12.4,  999.0,  999.0,   11.6,    9.3,  999.0,  999.0,  999.0,  999.0,  999.0,    6.6,    7.3,    7.9,  999.0,  999.0,  999.0,  999.0,  999.0,  999.0,  999.0,  999.0,  999.0,  999.0,  999.0,  999.0,  999.0,  999.0,  999.0,  999.0,  999.0,  999.0,  999.0,  999.0,  999.0,  999.0,  999.0,  999.0,  999.0,  999.0,  999.0,  999.0,  999.0,  999.0,  999.0,  999.0,  999.0,  999.0,  999.0,  999.0,  999.0,  999.0,  999.0,  999.0,  999.0,  999.0,  999.0,  999.0
2012/06/08 05:40,  999.0,  999.0,  999.0,    2.5,    2.8,    3.3,    4.0,    4.4,    6.3,    7.4,    9.2,    9.0,  999.0,    9.7,    9.8,    7.7,    6.4,    7.4,    8.0,    7.9,    7.6,    9.8,   11.4,   12.4,  999.0,  999.0,  999.0,    9.0,  999.0,  999.0,  999.0,  999.0,  999.0,    6.3,    7.2,    7.8,  999.0,  999.0,  999.0,  999.0,  999.0,  999.0,  999.0,  999.0,  999.0,  999.0,  999.0,  999.0,  999.0,  999.0,  999.0,  999.0,  999.0,  999.0,  999.0,  999.0,  999.0,  999.0,  999.0,  999.0,  999.0,  999.0,  999.0,  999.0,  999.0,  999.0,  999.0,  999.0,  999.0,  999.0,  999.0,  999.0,  999.0,  999.0,  999.0,  999.0,  999.0,  999.0,  999.0,  999.0
2012/06/08 05:50,  999.0,  999.0,  999.0,    2.6,    3.2,    3.2,    3.7,    5.6,  999.0,  999.0,    9.8,    8.5,  999.0,    8.3,    6.7,    6.8,  999.0,    8.0,    8.1,    8.0,    9.6,   11.1,   12.7,  999.0,  999.0,   10.8,   11.0,   11.0,  999.0,    9.9,    9.6,  999.0,  999.0,    7.5,    7.2,  999.0,  999.0,  999.0,  999.0,  999.0,  999.0,  999.0,  999.0,  999.0,  999.0,  999.0,  999.0,  999.0,  999.0,  999.0,  999.0,  999.0,  999.0,  999.0,  999.0,  999.0,  999.0,  999.0,  999.0,  999.0,  999.0,  999.0,  999.0,  999.0,  999.0,  999.0,  999.0,  999.0,  999.0,  999.0,  999.0,  999.0,  999.0,  999.0,  999.0,  999.0,  999.0,  999.0,  999.0,  999.0
2012/06/08 06:00,  999.0,  999.0,  999.0,    2.7,    2.7,    2.9,    4.3,    7.6,    8.2,  999.0,    9.5,  999.0,  999.0,    7.0,    7.0,    8.0,    8.5,    8.9,    8.4,    7.7,    9.3,   10.8,   12.5,  999.0,  999.0,   10.1,   10.7,   10.9,    8.1,    9.9,  999.0,  999.0,  999.0,    7.0,    7.4,    7.8,    9.0,  999.0,  999.0,  999.0,  999.0,  999.0,  999.0,  999.0,  999.0,  999.0,  999.0,  999.0,  999.0,  999.0,  999.0,  999.0,  999.0,  999.0,  999.0,  999.0,  999.0,  999.0,  999.0,  999.0,  999.0,  999.0,  999.0,  999.0,  999.0,  999.0,  999.0,  999.0,  999.0,  999.0,  999.0,  999.0,  999.0,  999.0,  999.0,  999.0,  999.0,  999.0,  999.0,  999.0
2012/06/08 06:10,  999.0,  999.0,  999.0,    3.3,    3.0,    3.7,    4.5,    6.8,    8.3,    8.7,    8.4,  999.0,  999.0,    7.5,    8.0,    8.4,    9.0,    9.6,    9.5,    7.7,    9.3,   11.1,  999.0,   13.8,  999.0,  999.0,   10.8,   10.3,    9.3,    9.4,  999.0,  999.0,  999.0,    6.1,    6.4,    7.2,    8.7,  999.0,  999.0,  999.0,  999.0,  999.0,  999.0,  999.0,  999.0,  999.0,  999.0,  999.0,  999.0,  999.0,  999.0,  999.0,  999.0,  999.0,  999.0,  999.0,  999.0,  999.0,  999.0,  999.0,  999.0,  999.0,  999.0,  999.0,  999.0,  999.0,  999.0,  999.0,  999.0,  999.0,  999.0,  999.0,  999.0,  999.0,  999.0,  999.0,  999.0,  999.0,  999.0,  999.0
2012/06/08 06:20,  999.0,  999.0,    3.0,    2.4,    2.9,    4.0,    4.7,    6.4,    7.8,    8.0,    7.6,    7.5,    7.9,    8.8,  999.0,  999.0,    8.6,    9.4,    9.3,    8.4,   10.1,   12.3,   12.2,  999.0,  999.0,   10.3,   10.9,    9.9,    9.4,   10.1,  999.0,  999.0,    6.6,    6.3,    6.4,    7.6,    8.6,  999.0,  999.0,  999.0,  999.0,  999.0,  999.0,  999.0,  999.0,  999.0,  999.0,  999.0,  999.0,  999.0,  999.0,  999.0,  999.0,  999.0,  999.0,  999.0,  999.0,  999.0,  999.0,  999.0,  999.0,  999.0,  999.0,  999.0,  999.0,  999.0,  999.0,  999.0,  999.0,  999.0,  999.0,  999.0,  999.0,  999.0,  999.0,  999.0,  999.0,  999.0,  999.0,  999.0
2012/06/08 06:30,  999.0,  999.0,    3.0,    2.3,    2.7,    3.5,    3.8,    5.5,    6.3,    7.3,    6.5,    6.2,    7.1,    7.5,    8.0,    7.7,  999.0,    8.9,    8.8,    8.1,    9.0,   10.6,   12.0,  999.0,  999.0,  999.0,   10.0,    8.7,    8.6,    7.3,  999.0,    6.4,  999.0,    5.5,    5.9,    7.1,  999.0,  999.0,  999.0,  999.0,  999.0,  999.0,  999.0,  999.0,  999.0,  999.0,  999.0,  999.0,  999.0,  999.0,  999.0,  999.0,  999.0,  999.0,  999.0,  999.0,  999.0,  999.0,  999.0,  999.0,  999.0,  999.0,  999.0,  999.0,  999.0,  999.0,  999.0,  999.0,  999.0,  999.0,  999.0,  999.0,  999.0,  999.0,  999.0,  999.0,  999.0,  999.0,  999.0,  999.0
2012/06/08 06:40,  999.0,  999.0,    3.4,    1.9,    2.6,    3.4,    3.3,    4.4,    6.0,    6.8,    5.4,    6.2,    7.5,  999.0,  999.0,    8.3,    9.1,    9.7,    9.2,    8.3,    9.9,   10.8,   12.0,  999.0,  999.0,  999.0,    9.1,    8.9,  999.0,  999.0,    5.8,    6.0,    5.1,    5.0,    5.9,    7.4,  999.0,  999.0,  999.0,  999.0,  999.0,  999.0,  999.0,  999.0,  999.0,  999.0,  999.0,  999.0,  999.0,  999.0,  999.0,  999.0,  999.0,  999.0,  999.0,  999.0,  999.0,  999.0,  999.0,  999.0,  999.0,  999.0,  999.0,  999.0,  999.0,  999.0,  999.0,    8.6,    8.6,  999.0,  999.0,  999.0,  999.0,  999.0,  999.0,  999.0,  999.0,  999.0,  999.0,  999.0
2012/06/08 06:50,  999.0,  999.0,  999.0,    2.9,    3.0,    3.5,    3.3,    3.6,    5.2,    6.2,    5.1,    6.6,    7.2,    7.5,    7.8,    8.0,    9.0,    9.3,    9.6,    8.8,    9.3,    9.2,   10.3,   11.4,  999.0,  999.0,    8.3,    7.4,  999.0,  999.0,  999.0,    4.9,    4.9,    4.7,    6.2,  999.0,  999.0,  999.0,  999.0,  999.0,  999.0,  999.0,  999.0,  999.0,  999.0,  999.0,  999.0,  999.0,  999.0,  999.0,  999.0,  999.0,  999.0,  999.0,  999.0,  999.0,  999.0,  999.0,  999.0,  999.0,  999.0,  999.0,  999.0,  999.0,  999.0,  999.0,  999.0,  999.0,  999.0,  999.0,  999.0,  999.0,  999.0,    8.6,  999.0,    8.6,  999.0,    8.6,    8.6,  999.0
2012/06/08 07:00,  999.0,  999.0,  999.0,    2.1,    3.7,    4.0,    4.3,    3.7,    4.5,    5.2,    4.2,    5.7,    6.5,    7.2,    8.3,    8.1,    8.5,    8.8,    9.3,  999.0,    8.8,    8.8,    9.2,  999.0,  999.0,  999.0,    8.1,    7.9,  999.0,  999.0,  999.0,    5.2,  999.0,  999.0,    6.0,    7.4,  999.0,  999.0,  999.0,  999.0,  999.0,  999.0,  999.0,  999.0,  999.0,  999.0,  999.0,  999.0,  999.0,  999.0,  999.0,  999.0,  999.0,  999.0,  999.0,  999.0,  999.0,  999.0,  999.0,  999.0,  999.0,  999.0,  999.0,  999.0,  999.0,  999.0,  999.0,  999.0,  999.0,  999.0,  999.0,  999.0,  999.0,  999.0,    8.6,  999.0,    8.6,  999.0,  999.0,  999.0
2012/06/08 07:10,  999.0,  999.0,  999.0,    3.8,    3.9,    4.4,    5.3,    4.0,    5.1,    5.3,    4.2,    5.3,    7.4,    7.4,    8.3,    8.1,    9.2,    9.0,    9.8,   10.3,    9.6,   10.1,    9.6,   10.5,  999.0,  999.0,    8.7,    9.3,    8.3,  999.0,  999.0,    5.4,    4.8,    4.6,    5.8,    7.0,  999.0,  999.0,  999.0,  999.0,  999.0,  999.0,  999.0,  999.0,  999.0,  999.0,  999.0,  999.0,  999.0,  999.0,  999.0,  999.0,  999.0,  999.0,  999.0,  999.0,  999.0,  999.0,  999.0,  999.0,  999.0,  999.0,  999.0,  999.0,  999.0,  999.0,  999.0,  999.0,  999.0,    8.5,  999.0,    8.5,    8.5,  999.0,  999.0,  999.0,  999.0,  999.0,  999.0,  999.0
2012/06/08 07:20,  999.0,  999.0,    1.4,    3.1,    3.3,    4.4,    5.6,    3.7,    4.2,    4.0,    3.7,    4.6,    6.4,    6.8,  999.0,    8.5,    8.2,    8.4,    8.9,    9.2,    8.4,    8.7,    9.7,  999.0,  999.0,    7.9,    8.5,    8.4,    8.2,  999.0,  999.0,    5.4,    4.6,    4.2,    6.4,    7.4,  999.0,  999.0,  999.0,  999.0,  999.0,  999.0,  999.0,  999.0,  999.0,  999.0,  999.0,  999.0,  999.0,  999.0,  999.0,  999.0,  999.0,  999.0,  999.0,  999.0,  999.0,  999.0,  999.0,  999.0,  999.0,  999.0,  999.0,  999.0,  999.0,  999.0,  999.0,  999.0,  999.0,  999.0,    8.6,  999.0,    8.5,    8.5,    8.5,  999.0,    8.6,  999.0,  999.0,  999.0
2012/06/08 07:30,   -0.3,  999.0,    0.7,    2.2,    3.5,    5.5,    5.8,    3.8,    4.2,    4.1,    4.0,    5.3,    6.3,    7.5,    8.3,    8.7,    8.4,    8.2,    8.2,    8.6,    8.3,    8.7,    9.6,  999.0,  999.0,  999.0,    7.4,    8.1,    7.5,  999.0,    4.8,  999.0,  999.0,    3.7,    5.7,  999.0,  999.0,  999.0,  999.0,  999.0,  999.0,  999.0,  999.0,  999.0,  999.0,  999.0,  999.0,  999.0,  999.0,  999.0,  999.0,  999.0,  999.0,  999.0,  999.0,  999.0,  999.0,  999.0,  999.0,  999.0,  999.0,  999.0,  999.0,  999.0,  999.0,  999.0,  999.0,  999.0,  999.0,  999.0,  999.0,  999.0,  999.0,  999.0,  999.0,    8.2,  999.0,  999.0,  999.0,  999.0
2012/06/08 07:40,   -0.2,   -0.2,    0.3,    1.4,    2.8,    5.2,    4.4,    3.8,    4.3,    4.7,    3.5,    4.3,    5.7,    7.0,    8.2,    8.7,    8.3,    8.3,    7.9,    7.3,    8.2,    9.0,  999.0,  999.0,  999.0,    7.1,    7.7,    7.4,  999.0,  999.0,    4.9,    4.5,    3.7,    4.8,  999.0,  999.0,  999.0,  999.0,  999.0,  999.0,  999.0,  999.0,  999.0,  999.0,  999.0,  999.0,  999.0,  999.0,  999.0,  999.0,  999.0,  999.0,  999.0,  999.0,  999.0,  999.0,  999.0,  999.0,  999.0,  999.0,  999.0,  999.0,  999.0,  999.0,  999.0,  999.0,  999.0,  999.0,  999.0,  999.0,  999.0,  999.0,  999.0,  999.0,  999.0,  999.0,  999.0,  999.0,  999.0,  999.0
2012/06/08 07:50,   -0.4,   -0.4,  999.0,    1.2,    4.0,    5.4,    4.0,    4.0,    3.8,    4.1,    4.1,  999.0,    5.1,    5.7,    6.7,  999.0,    8.8,    8.8,    8.1,    7.2,    7.2,    7.7,  999.0,  999.0,    7.4,    6.4,    6.7,    6.4,  999.0,    4.1,    4.3,    3.7,    3.7,    5.2,  999.0,  999.0,  999.0,  999.0,  999.0,  999.0,  999.0,  999.0,  999.0,  999.0,  999.0,  999.0,  999.0,  999.0,  999.0,  999.0,  999.0,  999.0,  999.0,  999.0,  999.0,  999.0,  999.0,  999.0,  999.0,  999.0,  999.0,  999.0,  999.0,  999.0,  999.0,  999.0,  999.0,  999.0,  999.0,  999.0,  999.0,  999.0,  999.0,  999.0,  999.0,  999.0,  999.0,  999.0,  999.0,  999.0
2012/06/08 08:00,   -0.5,   -0.1,    0.7,    2.0,    3.9,    5.5,    4.2,    3.4,  999.0,    3.0,    3.9,  999.0,    3.2,  999.0,    5.8,    6.7,    8.2,    8.3,    8.4,    7.4,  999.0,    6.5,  999.0,  999.0,  999.0,    6.0,    6.4,    6.2,  999.0,    2.9,    3.6,    3.2,    3.1,    4.0,    5.5,    5.2,    7.3,  999.0,  999.0,  999.0,  999.0,  999.0,  999.0,  999.0,  999.0,  999.0,  999.0,  999.0,  999.0,  999.0,  999.0,  999.0,  999.0,  999.0,  999.0,  999.0,  999.0,  999.0,  999.0,  999.0,  999.0,  999.0,  999.0,  999.0,  999.0,  999.0,  999.0,  999.0,  999.0,  999.0,  999.0,  999.0,  999.0,  999.0,  999.0,  999.0,  999.0,  999.0,  999.0,  999.0
2012/06/08 08:10,    0.0,  999.0,  999.0,    1.5,    3.7,    5.4,    5.6,    3.1,    3.0,    3.2,    2.4,    2.5,    2.7,    4.2,    4.7,    5.8,  999.0,  999.0,    7.4,    7.9,  999.0,  999.0,  999.0,  999.0,  999.0,  999.0,    5.9,    6.3,  999.0,  999.0,    3.2,    3.1,    3.0,    3.7,    5.2,    4.4,  999.0,  999.0,  999.0,  999.0,  999.0,  999.0,  999.0,  999.0,  999.0,  999.0,  999.0,  999.0,  999.0,  999.0,  999.0,  999.0,  999.0,  999.0,  999.0,  999.0,  999.0,  999.0,  999.0,  999.0,  999.0,  999.0,  999.0,  999.0,  999.0,  999.0,  999.0,  999.0,  999.0,  999.0,  999.0,  999.0,    6.4,  999.0,  999.0,  999.0,  999.0,  999.0,  999.0,  999.0
2012/06/08 08:20,   -0.2,  999.0,    1.2,    1.4,    3.7,    5.7,    5.1,    3.4,    2.9,    1.3,    1.1,    1.2,    2.7,  999.0,  999.0,    5.5,    7.0,    7.4,  999.0,    8.4,    7.9,    5.2,    6.8,  999.0,  999.0,  999.0,    5.4,    5.6,  999.0,  999.0,    3.0,  999.0,    2.7,    3.8,    5.4,    4.6,  999.0,  999.0,  999.0,  999.0,  999.0,  999.0,  999.0,  999.0,  999.0,  999.0,  999.0,  999.0,  999.0,  999.0,  999.0,  999.0,  999.0,  999.0,  999.0,  999.0,  999.0,  999.0,  999.0,  999.0,  999.0,  999.0,  999.0,  999.0,  999.0,  999.0,  999.0,  999.0,  999.0,  999.0,  999.0,  999.0,  999.0,  999.0,  999.0,  999.0,  999.0,  999.0,  999.0,  999.0
2012/06/08 08:30,   -0.9,  999.0,  999.0,    1.2,    3.4,    5.4,    4.8,    2.7,    3.6,    2.0,    0.6,    1.6,  999.0,    3.9,  999.0,    5.0,    5.6,    7.0,  999.0,    7.8,  999.0,  999.0,    6.1,    7.2,  999.0,  999.0,    5.3,    5.6,  999.0,    1.2,    3.0,    3.0,    2.9,    4.0,    5.3,  999.0,  999.0,  999.0,  999.0,  999.0,  999.0,  999.0,  999.0,  999.0,  999.0,  999.0,  999.0,  999.0,  999.0,  999.0,  999.0,  999.0,  999.0,  999.0,  999.0,  999.0,  999.0,  999.0,  999.0,  999.0,  999.0,  999.0,  999.0,  999.0,  999.0,  999.0,  999.0,  999.0,  999.0,  999.0,    5.8,    5.8,    5.8,  999.0,  999.0,  999.0,  999.0,  999.0,  999.0,  999.0
2012/06/08 08:40,  999.0,  999.0,    0.4,    2.1,    3.9,    5.4,    5.4,    4.1,    3.1,    3.0,    1.0,    0.8,    3.4,    3.9,  999.0,    5.4,    5.0,    6.2,    6.6,    7.4,    7.5,    5.7,  999.0,    6.8,  999.0,  999.0,  999.0,    5.2,  999.0,  999.0,    2.4,  999.0,    2.8,    3.4,    4.3,    6.2,  999.0,  999.0,  999.0,  999.0,  999.0,  999.0,  999.0,  999.0,  999.0,  999.0,  999.0,  999.0,  999.0,  999.0,  999.0,  999.0,  999.0,  999.0,  999.0,  999.0,  999.0,  999.0,  999.0,  999.0,  999.0,  999.0,  999.0,    5.7,  999.0,  999.0,  999.0,  999.0,  999.0,  999.0,  999.0,  999.0,  999.0,    5.8,  999.0,  999.0,  999.0,  999.0,  999.0,    5.8
2012/06/08 08:50,   -0.9,    0.1,   -0.2,    2.0,    3.4,    4.3,    4.1,    3.9,    3.3,  999.0,    2.2,    1.5,    2.7,    3.8,    4.6,    4.8,    4.7,    5.2,    6.1,    6.7,  999.0,    6.3,    5.8,    6.3,  999.0,  999.0,    4.2,    5.4,  999.0,  999.0,    3.1,  999.0,    2.3,    3.3,    4.6,    4.0,  999.0,  999.0,  999.0,  999.0,  999.0,  999.0,  999.0,  999.0,  999.0,  999.0,  999.0,  999.0,  999.0,  999.0,  999.0,  999.0,  999.0,  999.0,  999.0,  999.0,  999.0,  999.0,  999.0,  999.0,  999.0,  999.0,  999.0,  999.0,  999.0,  999.0,  999.0,  999.0,  999.0,  999.0,  999.0,  999.0,  999.0,  999.0,  999.0,  999.0,  999.0,  999.0,  999.0,  999.0
2012/06/08 09:00,  999.0,   -0.5,   -1.3,    0.1,    3.7,    4.6,    6.1,    5.3,    4.3,    4.1,  999.0,  999.0,    1.3,  999.0,  999.0,    5.4,    4.9,    4.7,    5.6,    5.6,    5.4,  999.0,  999.0,  999.0,  999.0,  999.0,    4.1,    4.2,    4.0,    0.5,    1.9,    2.0,    1.6,    2.3,    2.5,    3.1,  999.0,  999.0,  999.0,  999.0,  999.0,  999.0,  999.0,  999.0,  999.0,  999.0,  999.0,  999.0,  999.0,  999.0,  999.0,  999.0,  999.0,  999.0,  999.0,  999.0,  999.0,  999.0,  999.0,  999.0,  999.0,  999.0,  999.0,  999.0,  999.0,  999.0,  999.0,  999.0,  999.0,  999.0,  999.0,  999.0,  999.0,  999.0,  999.0,  999.0,  999.0,  999.0,  999.0,  999.0
2012/06/08 09:10,    0.5,  999.0,   -0.6,    0.3,    3.0,    3.5,  999.0,    6.4,    4.9,    4.1,    2.3,    3.1,    4.5,    5.2,    5.7,    5.6,    5.2,    4.7,    5.1,    5.4,    5.5,    4.6,  999.0,    3.0,    3.9,  999.0,    3.0,    3.4,    4.0,    0.7,  999.0,  999.0,    0.7,    1.9,    3.0,  999.0,  999.0,  999.0,  999.0,  999.0,  999.0,  999.0,  999.0,  999.0,  999.0,  999.0,  999.0,  999.0,  999.0,  999.0,  999.0,  999.0,  999.0,  999.0,  999.0,  999.0,  999.0,  999.0,  999.0,  999.0,  999.0,  999.0,  999.0,  999.0,  999.0,  999.0,  999.0,  999.0,  999.0,  999.0,  999.0,  999.0,  999.0,  999.0,  999.0,  999.0,  999.0,  999.0,  999.0,  999.0
2012/06/08 09:20,    0.1,  999.0,   -1.1,    0.3,    3.8,  999.0,  999.0,    5.5,    4.5,    4.2,    1.5,    3.1,    4.3,    5.0,    5.1,    5.1,    4.9,    5.1,    4.9,    5.4,  999.0,    3.7,    1.8,    3.2,    3.6,    0.7,    3.3,    3.7,    2.6,    1.8,  999.0,    0.5,    0.9,    1.9,    3.0,    6.7,  999.0,  999.0,  999.0,  999.0,  999.0,  999.0,  999.0,  999.0,  999.0,  999.0,  999.0,  999.0,  999.0,  999.0,  999.0,  999.0,  999.0,  999.0,  999.0,  999.0,  999.0,  999.0,  999.0,  999.0,  999.0,  999.0,  999.0,  999.0,  999.0,  999.0,  999.0,  999.0,  999.0,  999.0,  999.0,  999.0,  999.0,  999.0,  999.0,  999.0,  999.0,  999.0,  999.0,  999.0
2012/06/08 09:30,   -0.2,  999.0,   -0.4,    1.5,    3.5,    4.2,    6.2,    5.6,    3.3,    3.0,    1.6,  999.0,    3.8,    4.4,    4.7,  999.0,    4.9,    5.0,    5.7,  999.0,    1.7,    2.2,    1.0,    2.8,    2.4,    0.5,    2.2,    2.9,    2.1,    2.0,    1.3,    0.4,    0.5,    1.4,    2.9,    4.6,  999.0,  999.0,  999.0,  999.0,  999.0,  999.0,  999.0,  999.0,  999.0,  999.0,  999.0,  999.0,  999.0,  999.0,  999.0,  999.0,  999.0,  999.0,  999.0,  999.0,  999.0,  999.0,  999.0,  999.0,  999.0,  999.0,  999.0,  999.0,  999.0,  999.0,  999.0,  999.0,  999.0,  999.0,  999.0,  999.0,  999.0,  999.0,  999.0,  999.0,  999.0,  999.0,  999.0,  999.0
2012/06/08 09:40,    0.0,  999.0,    0.7,    2.5,    3.6,    6.2,    6.7,    6.0,    4.8,    3.1,    2.6,    3.3,    3.9,    4.3,    5.4,  999.0,  999.0,    6.2,    5.6,    5.2,    2.9,    2.8,    2.9,    3.3,    2.7,    0.3,    2.9,    3.3,    3.5,    1.9,    1.4,    0.4,    0.5,    0.9,    2.3,    4.9,  999.0,  999.0,  999.0,  999.0,  999.0,  999.0,  999.0,  999.0,  999.0,  999.0,  999.0,  999.0,  999.0,  999.0,  999.0,  999.0,  999.0,  999.0,  999.0,  999.0,  999.0,  999.0,  999.0,  999.0,  999.0,  999.0,  999.0,  999.0,  999.0,  999.0,  999.0,  999.0,  999.0,  999.0,  999.0,  999.0,  999.0,  999.0,  999.0,  999.0,  999.0,  999.0,  999.0,  999.0
2012/06/08 09:50,  999.0,    0.2,    0.5,  999.0,    3.5,    6.0,    6.3,    6.1,    5.5,    2.6,    2.6,    2.8,    3.8,    4.7,    5.3,    5.9,    5.8,    5.9,    5.1,    5.5,    3.3,    3.0,    2.9,    3.6,    4.3,  999.0,    4.1,    4.5,    4.8,    2.2,    1.4,    0.5,    0.9,    1.2,    3.1,  999.0,  999.0,  999.0,  999.0,  999.0,  999.0,  999.0,  999.0,  999.0,  999.0,  999.0,  999.0,  999.0,  999.0,  999.0,  999.0,  999.0,  999.0,  999.0,  999.0,  999.0,  999.0,  999.0,  999.0,  999.0,  999.0,  999.0,  999.0,  999.0,  999.0,  999.0,  999.0,  999.0,  999.0,  999.0,  999.0,  999.0,  999.0,  999.0,  999.0,  999.0,  999.0,  999.0,  999.0,  999.0
2012/06/08 10:00,  999.0,  999.0,  999.0,    0.9,    3.7,    6.3,    6.6,    5.8,    4.5,    3.3,    3.1,  999.0,    4.3,    4.7,    5.4,    5.8,    6.0,    5.6,    5.8,    4.7,    3.9,    1.1,    1.2,    2.9,    3.5,    1.9,    3.0,    4.1,    3.9,  999.0,    0.9,    0.2,    1.1,    1.4,    3.7,  999.0,  999.0,  999.0,  999.0,  999.0,  999.0,  999.0,  999.0,  999.0,  999.0,  999.0,  999.0,  999.0,  999.0,  999.0,  999.0,  999.0,  999.0,  999.0,  999.0,  999.0,  999.0,  999.0,  999.0,  999.0,  999.0,  999.0,  999.0,  999.0,  999.0,  999.0,  999.0,  999.0,  999.0,  999.0,  999.0,  999.0,  999.0,  999.0,  999.0,  999.0,  999.0,  999.0,  999.0,    5.0
2012/06/08 10:10,  999.0,  999.0,  999.0,    0.3,    3.2,    5.3,    5.4,    4.7,    4.7,    1.7,  999.0,    4.6,    4.6,    5.0,    5.0,    5.4,    5.0,    5.1,    5.1,    4.5,    2.7,    1.5,    0.9,    2.0,    4.1,    3.4,    3.6,    4.9,    3.8,    0.9,    0.4,    0.2,    0.8,    0.7,  999.0,  999.0,  999.0,  999.0,  999.0,  999.0,  999.0,  999.0,  999.0,  999.0,  999.0,  999.0,  999.0,  999.0,  999.0,  999.0,  999.0,  999.0,  999.0,  999.0,  999.0,  999.0,  999.0,  999.0,  999.0,  999.0,  999.0,  999.0,  999.0,  999.0,  999.0,  999.0,  999.0,  999.0,  999.0,  999.0,  999.0,  999.0,  999.0,  999.0,  999.0,  999.0,  999.0,  999.0,  999.0,    4.8
2012/06/08 10:20,   -0.1,   -0.6,  999.0,  999.0,  999.0,  999.0,    5.4,    8.0,    6.4,    3.3,    4.8,  999.0,    5.1,    5.9,    5.1,    5.5,    5.3,    5.0,    4.2,    3.2,    2.7,    2.3,    2.0,    2.2,    3.5,    2.5,    4.7,    4.5,    3.0,  999.0,  999.0,    0.1,    0.4,    1.0,  999.0,  999.0,  999.0,  999.0,  999.0,  999.0,  999.0,  999.0,  999.0,  999.0,  999.0,  999.0,  999.0,  999.0,  999.0,  999.0,  999.0,  999.0,  999.0,  999.0,  999.0,  999.0,  999.0,  999.0,  999.0,  999.0,  999.0,  999.0,  999.0,  999.0,  999.0,  999.0,  999.0,  999.0,  999.0,  999.0,  999.0,  999.0,  999.0,  999.0,  999.0,    4.4,  999.0,  999.0,  999.0,  999.0
2012/06/08 10:30,    0.1,   -0.2,    1.7,    0.1,  999.0,  999.0,  999.0,    7.0,    3.7,    1.7,    3.6,    4.2,    2.5,    1.9,    3.0,    3.3,    2.8,    2.9,    2.3,    1.8,    0.9,    0.6,    0.5,    1.4,    1.1,    0.9,    3.3,    4.1,    1.2,    0.3,   -0.4,   -0.4,    0.3,    0.4,  999.0,  999.0,  999.0,  999.0,  999.0,  999.0,  999.0,  999.0,  999.0,  999.0,  999.0,  999.0,  999.0,  999.0,  999.0,  999.0,  999.0,  999.0,  999.0,  999.0,  999.0,  999.0,  999.0,  999.0,  999.0,  999.0,  999.0,  999.0,  999.0,  999.0,  999.0,  999.0,  999.0,  999.0,  999.0,  999.0,  999.0,  999.0,  999.0,  999.0,  999.0,  999.0,  999.0,  999.0,  999.0,  999.0
2012/06/08 10:40,    0.1,  999.0,    0.1,    1.1,    1.9,  999.0,  999.0,  999.0,  999.0,  999.0,  999.0,    3.4,    3.6,    3.7,    2.4,    3.3,    3.1,    1.5,    1.4,    1.1,    0.5,    0.2,    0.1,    1.0,    1.3,    1.4,    4.2,    4.4,    1.0,    0.3,    0.2,   -0.1,    0.7,    1.0,  999.0,  999.0,  999.0,  999.0,  999.0,  999.0,  999.0,  999.0,  999.0,  999.0,  999.0,  999.0,  999.0,  999.0,  999.0,  999.0,  999.0,  999.0,  999.0,  999.0,  999.0,  999.0,  999.0,  999.0,  999.0,  999.0,  999.0,  999.0,  999.0,  999.0,  999.0,  999.0,  999.0,  999.0,  999.0,  999.0,  999.0,  999.0,  999.0,  999.0,  999.0,  999.0,  999.0,  999.0,  999.0,  999.0
2012/06/08 10:50,    0.1,    0.4,    0.7,  999.0,  999.0,  999.0,  999.0,  999.0,  999.0,  999.0,  999.0,    4.6,    5.8,  999.0,  999.0,    4.1,    4.9,    4.5,    3.0,    1.4,    0.3,    0.0,    0.2,    0.3,    0.6,    1.6,    2.9,    2.7,    0.5,    0.2,    0.1,   -0.1,    0.0,    0.9,    2.4,  999.0,  999.0,  999.0,  999.0,  999.0,  999.0,  999.0,  999.0,  999.0,  999.0,  999.0,  999.0,  999.0,  999.0,  999.0,  999.0,  999.0,  999.0,  999.0,  999.0,  999.0,  999.0,  999.0,  999.0,  999.0,  999.0,  999.0,  999.0,  999.0,  999.0,  999.0,  999.0,  999.0,  999.0,  999.0,  999.0,  999.0,  999.0,  999.0,  999.0,  999.0,  999.0,  999.0,  999.0,  999.0
2012/06/08 11:00,   -0.1,    0.1,   -0.8,    0.1,    1.9,    2.5,  999.0,  999.0,  999.0,  999.0,  999.0,  999.0,  999.0,  999.0,  999.0,    2.1,    3.3,    3.8,    2.6,   -0.3,    0.4,    0.4,    0.3,   -0.1,    0.5,    1.7,    3.2,    3.7,    2.5,    0.2,    1.3,    1.4,    1.0,    1.6,    3.3,  999.0,  999.0,  999.0,  999.0,  999.0,  999.0,  999.0,  999.0,  999.0,  999.0,  999.0,  999.0,  999.0,  999.0,  999.0,  999.0,  999.0,  999.0,  999.0,  999.0,  999.0,  999.0,  999.0,  999.0,  999.0,  999.0,  999.0,  999.0,  999.0,  999.0,  999.0,  999.0,  999.0,  999.0,  999.0,  999.0,  999.0,  999.0,  999.0,  999.0,  999.0,  999.0,  999.0,  999.0,  999.0
2012/06/08 11:10,    0.4,   -0.5,   -0.6,    2.0,    2.2,    2.4,    4.2,    4.5,  999.0,    7.5,    8.2,    7.1,    6.6,    6.6,    5.9,    5.4,    3.4,    2.9,    3.0,    0.3,    0.2,    0.7,    0.2,    0.4,    0.8,    0.8,    2.1,    4.0,    3.2,    0.3,    1.1,    2.0,    1.5,    1.2,    3.6,  999.0,  999.0,  999.0,  999.0,    9.2,  999.0,  999.0,  999.0,  999.0,  999.0,  999.0,  999.0,  999.0,  999.0,  999.0,  999.0,  999.0,  999.0,  999.0,  999.0,  999.0,  999.0,  999.0,  999.0,  999.0,  999.0,  999.0,   28.9,   28.2,   27.7,   28.9,   32.0,  999.0,   39.1,   41.6,  999.0,  999.0,  999.0,   46.1,  999.0,  999.0,  999.0,  999.0,  999.0,  999.0
2012/06/08 11:20,   -0.1,    0.1,    0.2,    0.3,    2.3,    4.1,    6.2,    8.6,    9.4,    9.0,    8.0,    8.4,    6.1,    4.5,    3.3,    3.1,    2.1,    1.4,    1.4,    0.3,    1.1,    0.4,   -0.3,    0.4,    0.4,    0.9,    1.6,    3.6,    2.3,    0.2,    0.2,    2.2,    1.5,    1.5,  999.0,  999.0,  999.0,  999.0,  999.0,    9.4,   11.7,  999.0,  999.0,  999.0,  999.0,  999.0,  999.0,  999.0,  999.0,  999.0,  999.0,  999.0,  999.0,  999.0,  999.0,  999.0,  999.0,  999.0,  999.0,  999.0,  999.0,  999.0,  999.0,   27.7,   27.4,   28.8,   31.6,   34.9,  999.0,  999.0,  999.0,  999.0,  999.0,  999.0,  999.0,  999.0,  999.0,  999.0,  999.0,  999.0
2012/06/08 11:30,   -0.0,   -0.0,  999.0,   -1.5,    1.1,    2.3,  999.0,    8.1,    6.3,    7.9,    6.0,  999.0,  999.0,    5.3,    5.2,    4.1,    3.4,    2.3,    2.1,    1.2,    1.9,    1.7,    0.6,    0.3,    0.6,    1.3,    3.0,    2.5,    1.0,    0.4,    1.2,    0.9,    1.7,  999.0,  999.0,  999.0,  999.0,  999.0,  999.0,  999.0,  999.0,  999.0,  999.0,  999.0,  999.0,  999.0,  999.0,  999.0,  999.0,  999.0,  999.0,  999.0,  999.0,  999.0,  999.0,  999.0,  999.0,  999.0,  999.0,  999.0,  999.0,  999.0,  999.0,  999.0,   29.3,   29.5,   31.3,   35.0,   38.6,   42.4,  999.0,  999.0,  999.0,  999.0,  999.0,  999.0,  999.0,  999.0,  999.0,  999.0
2012/06/08 11:40,   -0.1,    0.1,   -0.1,    1.2,    1.9,    0.8,    1.6,    3.3,    4.9,    6.0,    6.0,    6.4,    5.8,    4.9,    4.9,    5.1,    4.1,    3.4,    1.6,    3.0,    2.1,    1.2,    0.4,    0.4,   -0.0,    1.1,    2.4,    2.4,    0.8,    0.3,    0.5,    0.6,    1.9,    2.1,  999.0,  999.0,  999.0,  999.0,  999.0,  999.0,  999.0,   11.3,  999.0,  999.0,  999.0,  999.0,  999.0,  999.0,  999.0,  999.0,  999.0,  999.0,  999.0,  999.0,  999.0,  999.0,  999.0,  999.0,   29.9,  999.0,  999.0,  999.0,  999.0,  999.0,  999.0,  999.0,   34.0,  999.0,  999.0,  999.0,  999.0,  999.0,  999.0,  999.0,  999.0,  999.0,  999.0,  999.0,  999.0,  999.0
2012/06/08 11:50,   -0.1,    0.2,    2.5,    1.1,    1.2,    2.7,    3.9,    5.8,    8.0,    8.7,    8.2,    8.2,    8.2,    8.0,    7.0,    6.5,    4.5,    3.2,    2.3,    1.7,    2.0,    1.4,    1.4,    1.0,    0.1,    0.5,    1.5,    2.3,    1.6,    0.7,    1.2,    1.3,    0.6,    1.5,  999.0,  999.0,  999.0,  999.0,  999.0,  999.0,  999.0,  999.0,  999.0,  999.0,  999.0,  999.0,  999.0,  999.0,  999.0,  999.0,  999.0,  999.0,  999.0,  999.0,  999.0,  999.0,   26.3,   28.2,  999.0,  999.0,  999.0,  999.0,  999.0,  999.0,  999.0,   32.7,   35.6,   37.4,   38.1,   39.5,   41.4,   43.6,   45.0,  999.0,  999.0,  999.0,  999.0,  999.0,  999.0,  999.0
2012/06/08 12:00,    0.1,    0.3,   -0.4,    1.1,    1.3,    1.5,    3.0,    3.9,    4.7,    5.7,    7.2,    8.0,    8.5,    7.5,    5.8,    5.4,    3.7,    3.2,    1.9,    0.9,    1.3,    2.0,    1.4,    1.2,    0.4,    0.2,    0.7,    1.8,    0.9,    0.6,    0.7,    0.8,    0.4,    1.0,    3.0,  999.0,  999.0,  999.0,  999.0,  999.0,  999.0,  999.0,  999.0,  999.0,  999.0,   15.4,  999.0,   18.1,  999.0,  999.0,  999.0,  999.0,  999.0,  999.0,  999.0,  999.0,   25.0,   26.4,   28.1,   26.7,   26.9,   26.6,   27.4,   30.1,   33.0,   35.3,   36.5,   36.7,   38.3,   40.6,   42.3,   43.3,   44.0,   45.5,  999.0,  999.0,  999.0,  999.0,  999.0,  999.0
2012/06/08 12:10,   -0.0,    0.2,    0.5,    2.5,    3.1,    4.0,    4.5,    4.2,    4.5,    4.9,    6.5,    8.6,    8.3,    6.7,    5.8,    5.1,    4.2,    3.3,    2.4,    1.2,    1.4,    1.5,    2.5,    0.6,    0.1,    0.1,    0.3,    0.8,    0.7,    0.5,    0.8,    1.4,    0.9,    1.9,  999.0,  999.0,  999.0,  999.0,  999.0,  999.0,  999.0,  999.0,  999.0,  999.0,  999.0,  999.0,  999.0,  999.0,  999.0,  999.0,  999.0,  999.0,  999.0,  999.0,  999.0,  999.0,   24.5,   26.7,   24.7,   25.8,   26.5,   27.0,   29.6,   32.9,   34.7,   34.8,   35.5,   37.8,   40.4,   41.6,   42.3,   43.0,  999.0,  999.0,  999.0,  999.0,  999.0,  999.0,  999.0,  999.0
2012/06/08 12:20,    0.0,   -0.2,   -0.7,    1.5,    1.4,    2.3,    2.7,    2.9,    3.6,    5.2,    5.7,    6.4,    6.6,    5.9,    4.8,    4.2,    3.5,    3.0,    2.5,    1.3,    0.8,    0.6,    1.0,    0.7,    0.3,    0.4,    1.1,    1.3,    1.3,    0.6,    1.1,    0.9,    0.1,    2.2,    3.6,    5.7,  999.0,  999.0,  999.0,  999.0,  999.0,  999.0,  999.0,  999.0,  999.0,  999.0,  999.0,  999.0,  999.0,  999.0,  999.0,  999.0,  999.0,   22.0,   22.2,   23.0,   24.0,   24.3,   24.8,   25.8,   26.8,   28.5,   30.3,   31.7,   32.8,   34.5,   36.8,   38.5,  999.0,  999.0,  999.0,  999.0,  999.0,  999.0,  999.0,  999.0,  999.0,  999.0,  999.0,  999.0
2012/06/08 12:30,   -0.1,   -0.1,   -0.9,   -3.3,    0.3,    1.9,    3.3,    3.4,    3.8,    4.9,    4.6,    5.6,    5.6,    5.8,    5.1,    4.3,    3.5,    3.1,    2.4,    1.3,    0.5,    1.2,    1.7,    0.9,    0.3,    0.0,    0.4,    1.3,    1.2,    1.1,    0.6,    0.4,    0.3,  999.0,    2.3,  999.0,  999.0,  999.0,  999.0,    7.0,    9.1,  999.0,  999.0,  999.0,  999.0,  999.0,  999.0,  999.0,  999.0,  999.0,  999.0,  999.0,   20.8,   21.6,   21.7,   22.7,   23.3,   23.4,   24.1,   25.1,   26.2,   28.1,   29.8,   30.5,   32.1,   34.1,   36.5,  999.0,  999.0,  999.0,  999.0,  999.0,  999.0,  999.0,  999.0,  999.0,  999.0,  999.0,  999.0,  999.0
2012/06/08 12:40,    0.2,   -0.1,   -0.6,   -0.5,   -2.6,   -2.6,   -1.2,   -0.7,   -0.8,    0.4,    1.0,    2.6,    1.3,    1.5,    1.7,    1.9,    2.0,    1.6,    1.3,    1.2,    1.3,    3.5,    3.7,  999.0,    0.1,    0.4,    3.0,    3.2,    2.3,    2.0,    1.3,    0.8,   -0.0,  999.0,    1.5,  999.0,  999.0,  999.0,  999.0,    6.3,    8.0,  999.0,  999.0,  999.0,  999.0,  999.0,  999.0,  999.0,  999.0,  999.0,   18.9,   19.5,   20.6,   20.4,   21.1,   22.0,   22.7,   23.6,   24.3,   25.7,   26.5,   27.0,   27.1,   28.2,   31.0,   33.6,   35.1,  999.0,  999.0,  999.0,  999.0,  999.0,  999.0,  999.0,  999.0,  999.0,  999.0,  999.0,  999.0,  999.0
2012/06/08 12:50,   -0.2,    0.1,  999.0,   -2.3,  999.0,   -1.2,    1.0,    1.2,    1.7,    2.8,    5.1,    4.0,    4.0,    4.2,    3.4,    2.4,    2.6,    2.7,    3.3,    4.5,    6.0,    5.9,    6.0,    7.8,    7.9,  999.0,    4.2,    1.9,    2.0,    0.9,    1.0,    1.0,   -0.1,    0.0,    2.1,    4.4,  999.0,  999.0,  999.0,    6.2,    7.7,  999.0,  999.0,  999.0,  999.0,  999.0,  999.0,  999.0,   15.4,  999.0,  999.0,   18.5,   18.7,   19.4,   20.1,   21.0,   22.0,   22.3,   22.8,   24.1,   25.3,   26.0,   26.5,   28.5,   31.3,   33.3,   35.3,   37.5,  999.0,  999.0,  999.0,  999.0,  999.0,  999.0,  999.0,  999.0,  999.0,  999.0,  999.0,  999.0
2012/06/08 13:00,   -0.1,    0.2,   -1.9,   -3.4,   -2.8,   -1.4,    0.1,    1.3,    2.5,    4.4,    4.8,    3.7,    3.7,    5.0,    4.1,    3.7,    4.2,    4.5,    5.0,    5.4,    6.0,    5.6,    5.5,    6.4,    7.1,    6.3,    5.1,    3.1,    1.3,    1.1,    0.8,    0.3,    0.3,    1.1,    3.6,  999.0,  999.0,  999.0,  999.0,    7.1,  999.0,  999.0,  999.0,  999.0,  999.0,  999.0,   12.6,   14.2,   15.4,   14.9,   16.6,   17.1,   17.8,   18.4,   19.4,   20.4,   21.1,   21.4,   22.3,   23.1,   23.7,   24.3,   25.8,   28.2,   30.5,   32.6,   34.4,   36.5,  999.0,  999.0,  999.0,  999.0,  999.0,  999.0,  999.0,  999.0,  999.0,  999.0,  999.0,  999.0
2012/06/08 13:10,   -0.2,   -0.2,   -0.6,   -2.5,  999.0,  999.0,  999.0,  999.0,    1.8,    1.6,    3.3,    4.4,    4.5,    4.4,    3.7,    3.3,    3.2,    3.8,    3.7,    4.9,    5.9,    6.3,    5.6,    5.0,    4.9,    4.2,    3.6,    4.3,    3.2,    1.4,    1.7,    1.1,    0.7,    2.1,    3.9,  999.0,  999.0,  999.0,  999.0,    7.2,  999.0,  999.0,  999.0,  999.0,   10.6,   11.3,   11.4,   13.0,   15.2,   14.3,   15.6,   16.5,   17.3,   18.4,   19.3,   19.6,   19.9,   20.7,   21.3,   21.6,   21.8,   22.0,   24.1,   26.2,   27.4,   28.8,   30.2,   31.5,   33.6,   33.7,   33.7,   33.9,   35.7,   37.3,  999.0,  999.0,  999.0,  999.0,  999.0,  999.0
2012/06/08 13:20,   -0.2,  999.0,  999.0,   -1.3,   -1.9,   -2.3,   -1.8,   -0.9,   -0.6,    0.4,    1.1,    2.9,    3.2,    2.6,    2.9,    2.9,    2.9,    2.9,    3.5,    3.2,    3.3,    4.0,    4.1,    4.6,    4.4,    3.6,    3.5,    3.5,    3.8,    3.4,    2.9,    2.1,    2.3,    4.4,  999.0,  999.0,  999.0,  999.0,  999.0,    9.5,    8.5,    9.3,   10.1,    9.7,   10.3,   10.6,   12.2,   14.8,   14.8,   15.4,   16.5,   17.0,   17.7,   18.6,   19.7,   20.1,   21.1,   21.7,   22.3,   22.1,   22.1,   22.1,   23.0,   25.6,   26.1,   27.9,   29.2,   30.7,   31.9,   32.7,   33.3,   34.7,   35.4,   35.4,  999.0,  999.0,   37.5,  999.0,  999.0,  999.0
2012/06/08 13:30,    0.0,    0.0,   -0.1,   -2.1,   -2.7,   -1.8,   -1.0,   -0.7,   -0.0,    0.7,    2.0,    2.6,    2.5,    2.0,    2.1,    3.0,    3.2,    3.4,    3.8,    4.3,    5.5,    5.4,    5.1,    4.5,    3.6,    3.0,    3.0,    3.7,    4.6,    4.8,    4.4,    3.2,    4.1,    6.7,    6.4,    6.2,    7.9,    9.8,   10.4,   10.6,   10.8,   10.2,   10.0,    9.5,    9.0,   10.8,   14.4,   15.1,   14.6,   15.7,   16.3,   16.9,   17.6,   18.9,   19.6,   20.5,   21.6,   21.8,   21.6,   21.4,   20.9,   20.8,   21.9,   24.0,   26.6,   29.0,   32.1,   32.9,   34.3,   35.1,   36.6,   36.8,   36.9,  999.0,  999.0,  999.0,  999.0,  999.0,  999.0,  999.0
2012/06/08 13:40,    0.1,   -0.2,   -0.3,   -2.5,   -3.9,   -3.6,   -2.7,   -1.8,   -0.5,    0.2,    1.1,    1.1,    0.8,    0.3,    0.6,    1.4,    1.5,    2.5,    4.1,    5.8,    5.4,    4.2,    4.0,    4.5,    4.3,    4.1,    6.0,    6.0,    9.1,    8.7,    6.6,    6.2,    6.4,    6.5,    8.9,    8.9,   10.6,   10.3,   10.6,   10.3,    9.6,    8.7,    7.6,    6.8,    6.4,   10.5,   13.3,   12.9,   13.5,   14.4,   15.3,   17.0,   18.1,   18.7,   19.6,   20.2,   20.1,   19.6,   19.4,   20.0,   21.2,   22.8,   25.1,   26.6,  999.0,   32.9,   34.0,   35.9,  999.0,  999.0,  999.0,  999.0,  999.0,  999.0,  999.0,  999.0,  999.0,  999.0,  999.0,  999.0
2012/06/08 13:50,   -0.2,  999.0,  999.0,   -3.6,   -3.9,   -3.4,   -3.5,   -3.9,   -2.9,    0.2,    2.0,   -0.2,   -0.2,   -0.7,    0.1,    0.0,    1.8,    2.1,    4.1,    3.7,    1.3,    2.6,    2.2,    2.2,    2.6,    3.2,    3.8,    5.3,    6.9,    8.1,    9.7,   10.1,    7.7,    6.4,    6.0,    6.9,    8.1,    8.3,    8.1,    7.9,    7.7,    7.0,    6.3,    5.6,    5.4,    7.6,    9.9,   10.0,   11.1,   12.2,   12.8,   14.1,   15.1,   16.0,   16.9,   17.1,   17.0,   17.1,   18.0,   20.2,   22.7,   24.1,   27.0,   28.9,   30.7,   33.5,   34.9,   35.8,   36.2,   36.2,  999.0,  999.0,  999.0,  999.0,  999.0,  999.0,  999.0,  999.0,  999.0,  999.0
2012/06/08 14:00,  999.0,  999.0,   -3.0,   -3.8,   -4.2,   -5.4,   -6.7,   -5.6,   -5.4,   -4.5,  999.0,  999.0,   -0.8,   -0.3,   -0.1,    1.4,    1.1,    2.3,    3.4,    2.1,    2.5,    1.7,  999.0,  999.0,  999.0,  999.0,  999.0,    9.0,   11.8,   12.4,  999.0,   10.3,    9.9,    8.4,    7.7,    7.1,    6.7,    6.5,    6.9,    6.7,    6.4,    5.9,    6.2,    6.9,    8.9,   11.7,   12.1,   11.6,   12.8,   13.5,   13.7,   14.9,   15.5,   15.9,   16.4,   16.4,   16.4,   16.6,   17.5,   20.9,   23.4,   25.7,   28.4,   30.0,   32.3,   32.8,   34.8,   36.5,  999.0,   34.7,  999.0,  999.0,  999.0,  999.0,  999.0,  999.0,  999.0,  999.0,  999.0,  999.0
2012/06/08 14:10,  999.0,  999.0,   -4.9,   -5.0,   -5.5,   -5.2,   -5.4,   -6.9,   -6.3,   -7.2,  999.0,   -4.6,   -2.0,   -3.0,   -2.6,   -1.3,   -0.3,   -0.3,   -0.2,    0.3,    0.0,    0.7,    0.3,    1.0,   -0.5,    0.6,    2.6,    3.6,    5.9,    5.9,    9.6,    9.4,    8.2,    6.7,    6.4,    7.2,    7.4,    5.6,    5.7,    4.6,    5.5,    7.5,   11.6,   13.7,   14.4,   14.1,   13.6,   13.7,   14.4,   15.1,   15.6,   16.5,   16.5,   17.2,   17.5,   17.2,   17.3,   19.2,   20.7,   23.7,   25.7,   27.1,   29.4,   30.2,   31.9,   32.1,   32.4,  999.0,  999.0,  999.0,  999.0,  999.0,  999.0,  999.0,  999.0,  999.0,  999.0,  999.0,  999.0,  999.0
2012/06/08 14:20,  999.0,  999.0,  999.0,   -3.6,   -5.3,   -5.8,   -6.1,   -6.4,   -7.5,   -6.2,   -6.4,   -6.3,   -4.9,   -4.1,   -2.5,   -2.0,  999.0,  999.0,  999.0,  999.0,  999.0,  999.0,   -2.7,   -2.0,  999.0,  999.0,  999.0,    6.4,  999.0,  999.0,  999.0,  999.0,   10.1,    9.3,    8.6,    7.7,    7.8,    7.6,    7.3,    6.7,    7.6,    9.6,   12.4,   13.6,   14.1,   12.9,   12.5,   12.4,   12.5,   13.8,   14.1,   14.9,   16.3,   16.9,   17.0,   17.7,   19.6,   21.4,   23.8,   26.2,   28.4,   30.6,   31.3,   30.7,  999.0,  999.0,  999.0,  999.0,  999.0,  999.0,  999.0,  999.0,  999.0,  999.0,  999.0,  999.0,  999.0,  999.0,  999.0,  999.0
2012/06/08 14:30,  999.0,   -2.4,   -3.7,   -3.8,   -4.0,   -5.0,   -5.8,   -6.2,   -6.6,   -6.8,   -7.5,   -6.9,   -6.0,   -5.2,   -3.4,   -2.0,   -1.0,   -0.1,    0.4,   -0.2,   -1.3,   -2.0,   -2.0,   -0.8,    0.6,    2.8,    3.5,    4.8,    5.6,    6.2,    7.8,    9.4,    9.3,    8.5,    8.0,    7.2,    6.3,    5.7,    5.8,    6.6,    7.8,   10.0,   11.6,   13.6,   14.1,   12.1,   12.0,   11.9,   12.5,   13.0,   14.1,   15.8,   16.8,   16.2,   16.2,   17.6,   19.8,   22.4,   24.5,   27.0,   28.8,   30.6,   32.8,   33.2,  999.0,   37.1,  999.0,  999.0,  999.0,  999.0,  999.0,   41.5,   41.6,  999.0,  999.0,   42.3,   44.4,   45.8,   46.7,  999.0
2012/06/08 14:40,   -3.9,  999.0,   -4.9,   -5.1,   -4.8,   -5.3,   -5.9,   -6.6,   -7.8,   -8.2,   -8.2,   -7.7,   -6.6,   -6.1,   -5.4,   -3.0,   -0.1,    0.7,    0.2,   -0.8,   -1.3,   -1.5,   -1.1,   -0.5,    0.5,    1.4,    2.6,    3.2,    3.9,    5.2,    7.7,    8.3,    8.3,    8.1,    7.1,    6.3,    6.0,    5.5,    6.1,    6.3,    7.1,    9.3,   10.5,   12.4,   11.2,   10.2,   10.1,   10.4,   11.9,   12.6,   14.4,   14.7,   14.0,   14.4,   16.8,   18.9,   21.7,   22.7,   24.8,   27.3,   30.0,   32.4,   33.9,   36.1,   38.4,   39.8,  999.0,  999.0,  999.0,  999.0,  999.0,  999.0,  999.0,  999.0,  999.0,  999.0,  999.0,  999.0,  999.0,  999.0
2012/06/08 14:50,  999.0,  999.0,   -5.4,   -5.7,   -6.5,   -6.6,   -7.1,   -7.8,   -8.4,   -8.9,   -8.7,   -8.1,   -6.9,   -6.1,   -3.9,  999.0,   -3.8,   -1.6,   -1.4,   -1.7,  999.0,   -0.5,   -0.5,    0.1,    0.4,    1.9,    3.0,    3.4,    3.8,    5.6,    5.7,    7.1,  999.0,    6.9,    6.0,    5.3,    4.9,    4.8,    4.8,    5.3,    7.1,    6.9,    8.2,    9.6,   10.5,    9.8,    9.7,   10.0,   11.6,   13.1,   13.8,   14.0,   14.1,   16.0,   18.3,   20.4,   23.4,   25.5,   28.8,   31.5,   34.3,   36.0,   36.8,   37.9,   39.6,   39.6,   41.0,  999.0,  999.0,  999.0,  999.0,  999.0,  999.0,  999.0,  999.0,  999.0,  999.0,  999.0,  999.0,  999.0
2012/06/08 15:00,  999.0,  999.0,   -4.9,   -5.3,   -6.9,   -7.1,   -7.5,   -6.7,   -6.2,   -5.3,   -4.2,   -4.5,   -5.1,  999.0,  999.0,  999.0,  999.0,  999.0,  999.0,  999.0,  999.0,  999.0,  999.0,  999.0,  999.0,    1.0,    1.5,    1.3,    2.0,    2.2,    3.9,    6.4,    6.9,    7.2,    6.0,    5.5,    5.1,    4.9,    5.3,    6.7,    8.1,    8.8,    9.9,   11.3,   10.9,   10.3,   10.0,   10.4,   12.0,   12.7,   13.9,   13.7,   13.7,   13.7,   15.7,   18.8,   20.1,  999.0,   25.2,   26.6,   29.4,   31.0,   32.1,   33.3,   35.7,   36.3,  999.0,  999.0,  999.0,  999.0,  999.0,  999.0,  999.0,  999.0,  999.0,  999.0,  999.0,  999.0,  999.0,  999.0
2012/06/08 15:10,  999.0,  999.0,   -4.5,   -5.3,   -5.4,   -5.0,   -5.0,   -4.9,   -4.3,   -3.9,   -3.0,   -2.5,   -2.8,   -1.7,   -1.5,   -2.4,   -1.5,  999.0,   -1.7,   -1.5,   -1.1,   -0.6,   -0.5,    0.2,    1.4,  999.0,  999.0,  999.0,  999.0,  999.0,  999.0,  999.0,  999.0,  999.0,    6.7,    6.3,    5.7,    5.0,    5.1,    6.0,    7.0,    7.9,    9.5,   11.0,   10.6,   10.3,    9.8,    9.8,   11.6,   12.8,   13.2,   13.0,   12.7,   13.1,   14.2,   16.1,   18.9,   21.3,   23.1,   24.0,   25.0,   26.0,   27.2,   28.5,   29.1,  999.0,  999.0,  999.0,   36.5,   37.4,  999.0,  999.0,  999.0,  999.0,  999.0,  999.0,  999.0,  999.0,  999.0,  999.0
2012/06/08 15:20,   -7.3,  999.0,   -5.5,   -5.4,   -4.5,   -4.8,   -4.8,   -4.5,   -4.7,   -4.7,   -3.6,   -2.6,   -2.3,   -1.7,   -0.3,    0.4,    0.8,    0.5,    0.7,    0.2,   -0.3,   -0.6,   -0.6,   -0.3,    0.7,    2.8,    2.6,    3.3,    6.7,    8.3,    6.7,  999.0,  999.0,    6.4,    6.2,    6.4,    5.6,    4.2,    3.9,    4.7,    5.6,    6.3,    7.6,    9.2,    9.7,    9.2,    8.8,   10.2,   11.4,   11.4,   11.4,   11.5,   12.0,   13.0,   14.5,   17.3,   20.1,   22.6,   23.9,   25.5,   25.5,  999.0,  999.0,  999.0,  999.0,  999.0,  999.0,  999.0,  999.0,  999.0,  999.0,  999.0,  999.0,  999.0,  999.0,  999.0,  999.0,  999.0,  999.0,  999.0
2012/06/08 15:30,   -6.5,   -6.1,   -4.8,   -4.5,   -3.8,   -4.4,   -4.9,   -5.4,   -5.1,   -5.6,   -5.8,   -4.3,   -3.5,   -2.6,   -1.9,   -1.0,   -0.4,    0.0,    0.6,    0.4,   -1.2,   -2.6,   -3.4,   -2.6,   -1.1,    0.3,    1.2,    2.3,    4.0,    4.8,    4.3,    5.0,  999.0,    4.6,    3.8,    3.8,    3.5,    2.9,    2.8,    3.9,    4.3,    5.8,    7.7,    8.0,    8.4,    7.7,    9.4,   10.3,   10.4,   10.8,   11.3,   12.0,   13.1,   14.1,   15.7,   18.0,   20.0,   21.3,   21.8,   22.7,   23.7,   25.5,   27.7,   30.2,   31.3,  999.0,  999.0,  999.0,  999.0,  999.0,  999.0,  999.0,  999.0,  999.0,  999.0,  999.0,  999.0,  999.0,  999.0,  999.0
2012/06/08 15:40,   -6.9,   -5.6,   -5.5,   -4.1,   -2.7,   -3.1,   -3.3,   -4.2,   -3.2,   -2.2,   -3.6,   -4.1,   -3.8,   -3.3,   -3.4,   -2.5,   -2.0,   -1.9,   -1.6,   -1.5,   -1.3,   -2.5,   -1.6,   -1.4,    0.2,    0.7,    1.5,    2.3,    3.0,    4.3,    3.7,    3.9,    4.8,    4.2,    4.5,    4.4,    4.0,    3.7,    3.4,    3.6,    3.8,    4.4,    5.9,    7.5,    7.7,    6.9,    7.2,    8.8,    9.4,    9.8,   10.4,   11.5,   12.5,   13.5,   15.6,   17.8,   19.8,   20.9,   21.8,   21.9,   23.2,   24.8,   26.7,   28.5,   30.1,   31.6,   32.5,   33.5,  999.0,  999.0,  999.0,  999.0,  999.0,  999.0,  999.0,  999.0,  999.0,  999.0,  999.0,  999.0
2012/06/08 15:50,   -5.5,   -5.4,   -4.4,   -3.3,   -2.0,   -1.2,   -1.3,   -1.7,   -2.6,   -3.5,   -4.4,   -5.4,   -4.9,   -3.7,   -2.9,   -2.4,   -1.9,   -1.4,    0.2,    0.8,   -0.1,    0.7,    0.8,    1.0,    1.2,    1.3,    1.3,    2.2,    3.5,    5.3,    5.6,  999.0,  999.0,    4.2,    4.3,    4.0,    3.6,    2.4,    2.2,    3.0,    3.5,    4.6,    5.3,    6.8,    7.7,    7.1,    7.4,    7.8,    8.4,    8.4,    9.7,   11.2,   12.2,   13.4,   15.4,   17.9,   19.8,   21.2,   21.4,   22.2,   23.1,   24.5,   26.0,   29.3,   31.6,   31.5,   32.0,   34.0,   34.4,   34.0,  999.0,  999.0,  999.0,  999.0,  999.0,  999.0,  999.0,  999.0,  999.0,  999.0
2012/06/08 16:00,  999.0,  999.0,   -4.9,   -3.4,   -1.8,   -0.1,   -0.4,   -0.8,   -1.6,   -1.7,   -2.7,   -3.4,   -3.7,   -3.0,   -1.9,   -1.5,   -1.3,   -1.0,   -0.1,   -0.0,   -0.2,    0.6,    0.8,    0.7,    0.8,    1.1,    0.6,    2.1,    3.3,    4.7,    4.3,  999.0,  999.0,    2.9,    2.5,    2.6,    2.4,    2.0,    2.1,    2.3,    3.0,    3.1,    3.9,    4.5,    6.3,    6.2,    6.0,    6.7,    7.5,    8.3,    9.6,   11.3,   12.3,   13.5,   15.6,   18.3,   20.8,   22.3,   23.0,   23.9,   25.5,   27.2,   29.0,   31.7,   33.7,   34.4,   34.8,  999.0,  999.0,  999.0,  999.0,  999.0,  999.0,  999.0,  999.0,  999.0,  999.0,  999.0,  999.0,  999.0
2012/06/08 16:10,  999.0,  999.0,   -5.8,   -4.5,   -2.7,   -1.6,   -0.5,   -0.1,   -0.3,   -1.1,   -2.6,   -3.2,   -3.5,   -2.6,   -1.9,   -1.1,   -1.5,   -0.8,   -1.0,   -0.9,   -1.0,   -0.7,    0.2,    0.5,    0.3,    0.1,   -0.4,    0.8,    2.4,    2.9,    3.4,  999.0,  999.0,    2.1,    1.8,    1.5,    1.0,    0.8,    1.5,    2.4,    2.7,    2.7,    2.8,    2.6,    5.2,    5.7,    5.3,    6.2,    7.1,    8.3,    9.5,   10.6,   11.8,   13.9,   17.0,   20.1,   21.9,   22.6,   23.4,   25.0,   26.9,   28.4,   30.8,   31.8,   31.2,   30.6,   31.5,   32.2,   34.5,   34.2,   34.4,   35.9,   37.5,   39.1,   40.2,   40.3,   40.6,   40.4,   39.8,   40.0
2012/06/08 16:20,   -5.4,   -5.8,   -5.3,   -4.1,   -2.5,   -1.7,   -0.6,    0.8,    0.3,   -0.7,   -2.5,   -2.9,   -4.1,   -2.6,   -2.1,   -1.6,   -0.6,   -0.9,   -2.1,   -1.4,   -1.2,   -1.0,   -0.4,   -0.4,   -1.0,   -1.0,   -0.8,    0.6,    2.0,    2.9,    3.0,  999.0,  999.0,  999.0,    2.0,    1.6,    1.5,    1.1,    1.4,    2.4,    3.1,    3.0,    3.1,    2.7,    4.6,    5.5,    5.0,    5.6,    6.8,    8.1,    9.4,   10.8,   12.3,   14.6,   17.2,   19.7,   21.8,   23.0,   24.2,   24.6,   25.2,   25.7,   25.9,   26.5,   27.3,   28.0,   28.3,   29.2,   29.9,   29.7,   30.2,  999.0,   31.0,   33.4,   34.8,   36.7,   37.7,   37.4,  999.0,  999.0
2012/06/08 16:30,   -5.4,   -5.9,   -6.3,   -5.5,   -4.1,   -2.6,   -1.8,   -1.3,   -0.4,   -1.4,   -2.1,   -3.5,   -3.3,   -4.0,   -3.9,   -2.7,   -2.5,   -2.9,   -2.4,   -1.9,   -1.5,   -1.2,   -0.4,    0.0,   -1.0,    0.9,    2.3,    3.9,    3.6,    3.6,    3.1,  999.0,  999.0,  999.0,  999.0,    1.6,    1.3,    0.7,    0.6,    2.2,    2.9,    2.5,    1.9,    2.5,    4.6,    5.1,    4.7,    5.7,    7.1,    9.1,   10.3,   11.7,   13.8,   16.4,   18.7,   21.0,   22.9,   23.9,   24.5,   24.6,   24.8,   24.9,   26.1,   27.8,   28.7,   29.6,   30.8,   30.9,   29.9,   29.5,   30.9,   31.9,   33.9,   34.6,   35.1,   36.2,   36.1,   36.7,   37.1,   37.2
2012/06/08 16:40,   -5.7,   -5.2,   -5.3,   -5.2,   -4.4,   -2.7,   -2.0,   -1.7,   -1.6,   -1.3,   -3.1,   -4.2,   -5.7,   -5.7,   -4.9,   -3.8,   -3.2,   -2.7,   -2.9,   -2.6,   -2.1,   -1.4,   -1.2,   -1.0,   -1.2,    1.2,    2.7,    2.7,    1.4,  999.0,    3.4,  999.0,  999.0,  999.0,    2.7,    1.1,   -0.0,   -0.4,    1.0,    3.0,    2.5,    1.8,    2.7,    5.0,    5.2,    4.6,    6.1,    7.6,    9.3,    9.8,   11.4,   13.9,   16.9,   19.1,   20.7,   22.2,   23.3,   24.7,   25.7,   26.3,   27.4,   28.8,   30.1,   30.8,   32.5,   33.4,   34.2,   34.7,   35.3,   36.0,   36.1,   36.6,   37.3,   37.6,   38.1,   38.7,   38.7,   39.1,   39.3,   39.4
2012/06/08 16:50,   -6.6,   -6.9,   -5.9,   -5.0,   -3.5,   -2.8,   -2.3,   -1.7,   -2.1,   -1.7,   -3.4,   -4.9,   -6.1,   -6.3,   -5.6,   -4.5,   -4.0,   -2.9,   -3.2,   -2.7,   -2.2,   -1.4,   -1.2,   -1.7,   -0.3,    2.7,    1.6,    0.7,  999.0,  999.0,  999.0,  999.0,  999.0,  999.0,  999.0,  999.0,  999.0,    1.7,    3.0,    2.8,    2.3,    2.6,    3.7,    4.5,    4.2,    5.2,    7.0,    8.4,    9.8,   11.4,   12.9,   14.8,   16.9,   19.0,   20.8,   22.5,   24.2,   26.1,   27.9,   30.0,   30.8,   31.4,   33.2,   34.6,   35.3,   37.0,   37.6,   38.8,   40.0,   41.0,   41.2,   41.7,   42.2,   42.9,   43.6,   44.1,   44.8,   45.8,   45.7,   45.4
2012/06/08 17:00,   -6.4,   -6.5,   -5.3,   -3.5,   -2.0,   -2.2,   -2.1,   -1.3,   -1.4,   -2.0,   -2.5,   -4.1,   -5.3,   -6.7,   -6.4,   -5.6,   -4.7,   -3.3,   -2.9,   -2.7,   -1.9,   -0.5,   -0.6,   -1.0,   -0.1,    2.1,    2.8,    3.1,    2.9,    2.7,    2.6,    2.5,    2.7,    2.2,    1.3,    0.3,   -0.4,    1.7,    1.7,    1.0,    0.6,    0.8,    2.4,    3.3,    3.2,    3.7,    7.0,    9.8,   11.7,   11.8,   13.0,   14.6,   17.6,   20.2,   23.6,   26.0,   27.4,   28.9,   30.9,   31.9,   31.2,   31.8,   32.7,   34.6,  999.0,  999.0,  999.0,  999.0,  999.0,  999.0,  999.0,  999.0,  999.0,  999.0,  999.0,  999.0,  999.0,  999.0,  999.0,  999.0
2012/06/08 17:10,  999.0,  999.0,   -4.3,   -2.8,   -1.8,   -1.3,   -0.8,   -0.0,   -0.1,   -1.2,   -1.6,   -3.3,   -5.6,   -7.7,   -6.9,   -6.1,   -5.8,   -4.0,   -3.1,   -3.0,   -2.4,   -1.8,   -0.8,   -0.0,   -1.3,    0.0,    1.1,    1.0,    1.3,    0.4,    0.5,    0.9,    1.3,    2.1,    0.1,   -0.7,   -0.6,    1.6,    1.7,    1.4,    1.3,    2.3,    2.2,    3.8,    4.6,    6.5,    8.2,    8.6,   10.7,   12.7,   15.7,   17.4,   20.3,   21.8,   24.5,   25.7,   26.3,   28.2,   29.3,   31.2,   31.6,   32.7,   34.5,   36.2,  999.0,  999.0,  999.0,  999.0,  999.0,  999.0,  999.0,  999.0,  999.0,  999.0,  999.0,  999.0,  999.0,  999.0,  999.0,  999.0
2012/06/08 17:20,   -7.3,  999.0,   -5.0,   -2.9,   -1.9,   -1.1,   -0.7,   -0.4,   -0.6,   -1.2,   -1.8,   -2.9,   -3.7,   -5.2,   -6.8,   -5.9,   -5.8,   -4.5,   -1.8,   -0.9,    0.1,    0.3,    2.4,    2.1,    1.8,    4.3,    3.4,    4.2,   -0.0,    1.8,    1.6,    1.8,    1.4,    0.5,   -1.1,   -1.2,   -0.4,   -0.1,   -0.4,   -0.6,    0.0,    1.3,    2.2,    4.3,    6.7,    7.8,    9.1,   10.2,   13.2,   16.1,   19.1,   21.2,   23.0,   23.1,   25.0,   26.5,   28.2,   30.6,   32.3,   34.7,   36.0,   37.2,   38.3,   39.3,   40.0,   41.8,  999.0,  999.0,  999.0,  999.0,  999.0,  999.0,  999.0,  999.0,  999.0,  999.0,  999.0,  999.0,  999.0,  999.0
2012/06/08 17:30,   -6.5,   -6.2,   -4.3,   -1.9,   -1.8,   -0.8,   -0.1,   -1.5,   -1.8,   -2.7,   -3.6,   -5.1,   -5.6,   -7.1,   -8.6,   -8.3,   -7.3,   -4.9,   -2.7,   -1.7,   -1.1,   -0.9,   -1.0,   -1.0,   -1.1,   -0.1,   -0.3,   -0.6,   -1.8,   -2.0,   -0.5,   -0.9,  999.0,  999.0,   -0.5,   -0.7,   -0.1,   -0.2,   -0.3,   -0.0,    0.8,    2.0,    3.5,    5.3,    7.7,    9.5,   10.9,   13.9,   18.0,   20.9,   23.4,   26.2,   27.5,   29.5,   30.5,   31.5,   33.1,   35.4,   37.4,   39.1,   40.3,   41.6,   42.0,   42.1,   42.6,   42.3,   43.1,   42.6,   42.6,   42.1,   43.1,  999.0,  999.0,  999.0,  999.0,  999.0,  999.0,  999.0,  999.0,  999.0
2012/06/08 17:40,   -6.3,   -6.9,   -6.0,   -4.0,   -2.4,   -2.5,   -1.2,   -1.7,   -2.8,   -2.3,   -2.4,   -3.5,   -4.6,   -6.9,   -9.5,   -9.6,   -7.9,   -5.2,   -4.2,   -3.4,   -1.6,   -1.7,   -1.9,   -2.0,   -1.9,   -1.7,   -0.8,   -0.0,    0.5,    0.6,   -0.4,   -0.1,  999.0,   -1.2,   -0.5,   -0.5,   -0.9,   -0.8,    0.1,    0.6,    1.0,    2.5,    4.6,    7.3,    9.5,   11.6,   14.9,   18.0,   20.2,   22.5,   24.5,   27.2,   28.0,   30.6,   33.6,   35.2,   36.5,   38.0,   39.0,   39.4,   39.9,   40.3,   40.5,   41.0,   40.4,   41.2,   41.8,   42.0,   42.1,   42.1,   42.6,   44.2,  999.0,  999.0,  999.0,  999.0,  999.0,  999.0,  999.0,  999.0
2012/06/08 17:50,   -6.9,   -7.2,   -7.5,   -6.3,   -4.6,   -3.7,   -2.7,   -2.5,   -3.1,   -3.2,   -3.8,   -3.9,   -3.9,   -5.0,   -7.7,   -9.0,   -8.0,   -6.3,   -4.7,   -5.5,   -2.8,   -1.5,   -1.9,  999.0,  999.0,   -1.7,    0.3,    0.4,    2.4,   -1.2,   -3.1,  999.0,  999.0,  999.0,   -0.3,   -1.5,   -1.1,   -0.5,   -0.5,    0.1,    2.0,    4.7,    7.1,    7.8,   12.0,   14.9,   16.9,  999.0,  999.0,  999.0,   23.6,   28.4,   26.8,   29.1,   34.9,  999.0,   28.6,  999.0,  999.0,  999.0,  999.0,  999.0,  999.0,  999.0,  999.0,  999.0,  999.0,  999.0,  999.0,  999.0,  999.0,  999.0,  999.0,  999.0,  999.0,  999.0,  999.0,  999.0,  999.0,  999.0
2012/06/08 18:00,  999.0,  999.0,   -7.2,   -6.1,   -4.8,   -3.8,   -2.7,   -3.1,   -4.7,   -5.6,   -4.8,   -4.6,   -6.3,   -8.4,  -10.4,  -11.1,   -9.1,   -8.0,   -5.8,   -5.1,   -3.6,   -3.0,   -3.2,   -3.4,   -2.7,   -1.6,   -0.8,   -0.9,   -0.9,   -0.8,   -1.8,   -2.4,   -2.9,   -1.7,   -1.4,   -2.0,    0.1,    0.9,    1.6,    3.3,    5.9,    8.1,  999.0,  999.0,  999.0,  999.0,  999.0,   23.8,   26.3,   27.4,   27.9,   30.9,   30.9,  999.0,  999.0,   32.6,   34.6,   35.7,   37.4,   38.6,   40.2,   41.3,  999.0,  999.0,  999.0,  999.0,  999.0,  999.0,  999.0,  999.0,  999.0,  999.0,  999.0,  999.0,  999.0,  999.0,  999.0,  999.0,  999.0,  999.0
2012/06/08 18:10,  999.0,  999.0,   -7.8,   -6.4,   -4.7,   -3.7,   -2.8,   -3.3,   -4.0,   -3.9,   -3.9,   -4.1,   -5.5,   -7.4,   -9.0,  -10.1,   -8.2,   -6.3,   -4.8,   -4.2,   -4.1,   -3.5,   -3.3,   -3.2,   -2.7,   -2.1,   -1.0,   -0.7,   -1.0,   -1.2,    0.2,  999.0,  999.0,  999.0,   -3.4,   -2.7,   -2.6,   -0.5,    0.7,    3.7,  999.0,    9.4,   10.5,   12.5,   14.3,   17.5,   20.7,   23.1,   25.1,   26.5,   28.0,   29.4,   30.0,   30.7,   31.3,   31.8,   32.5,   33.8,   35.1,   36.4,   37.4,   39.2,   38.7,   40.9,   42.5,   43.2,   43.9,   45.7,   45.8,   47.5,   48.9,   53.2,   55.1,   55.2,  999.0,  999.0,  999.0,  999.0,  999.0,  999.0
2012/06/08 18:20,   -8.5,   -9.1,   -8.1,   -6.6,   -4.5,   -3.9,   -3.2,   -3.2,   -4.2,   -4.5,   -4.5,   -5.1,   -7.3,   -9.5,  -11.0,  -12.0,   -9.7,   -7.3,   -5.3,   -5.0,   -4.3,   -4.4,   -4.5,   -4.9,   -3.9,   -2.6,   -2.2,   -1.7,   -3.4,   -2.9,   -3.8,   -3.6,  999.0,  999.0,   -4.3,   -3.7,   -2.8,   -0.4,    1.6,    3.2,    5.5,  999.0,  999.0,  999.0,   19.6,   21.1,   23.5,   26.3,   26.9,   27.8,   29.0,   30.0,   30.6,   31.4,   31.9,   32.5,   33.6,   34.5,   35.4,   36.0,   36.8,   38.2,   38.3,   38.4,   38.7,   38.6,   38.8,   40.1,   43.3,   42.3,   44.8,   47.0,  999.0,   45.8,   45.0,   47.7,   47.7,   46.2,   48.7,   48.5
2012/06/08 18:30,   -8.9,   -9.5,   -7.8,   -6.9,   -4.9,   -3.9,   -3.6,   -3.4,   -4.6,   -5.8,   -6.3,   -5.8,   -7.4,   -9.7,  -10.7,  -11.8,  -11.1,   -8.4,   -6.5,   -5.8,   -5.3,   -5.7,   -6.0,   -5.6,   -4.6,   -3.7,   -3.3,   -3.7,   -3.8,   -4.0,   -5.8,   -5.8,  999.0,  999.0,  999.0,  999.0,    1.6,    4.2,    5.8,    6.0,    8.8,   11.5,  999.0,  999.0,   22.4,   23.2,   23.8,   24.4,   25.2,   26.8,   27.7,   27.9,   27.2,   28.6,   30.5,   31.8,   33.7,   34.8,   35.7,   35.5,   35.3,   35.2,   35.2,   34.7,   35.9,   36.3,   36.8,   38.3,   39.2,   40.5,   40.8,  999.0,  999.0,  999.0,   47.5,  999.0,  999.0,   44.0,   46.1,   48.8
2012/06/08 18:40,  999.0,  999.0,  999.0,   -7.7,   -5.4,   -4.6,   -4.7,   -4.8,   -4.7,   -4.5,   -5.0,   -5.5,   -7.0,   -8.8,  -10.6,  -11.5,  -12.4,  -10.4,   -8.2,   -8.1,   -8.0,   -8.0,   -6.9,   -5.7,   -4.6,   -4.1,   -3.7,   -4.2,   -5.4,   -5.2,   -6.7,   -7.2,   -5.3,   -2.4,    0.5,    2.2,    2.5,    5.0,    6.2,    7.5,  999.0,  999.0,   15.7,   17.4,   19.5,   21.2,   22.6,   23.6,   23.1,   23.1,   23.7,   25.0,   25.5,   26.9,   29.1,   32.1,   34.4,   34.2,   34.3,   33.9,   33.1,   33.7,   33.2,   32.7,   32.8,   33.3,   34.0,   35.2,  999.0,  999.0,  999.0,  999.0,  999.0,  999.0,  999.0,  999.0,  999.0,  999.0,  999.0,  999.0
2012/06/08 18:50,  999.0,  999.0,  999.0,   -8.8,   -6.9,   -6.3,   -6.0,   -6.5,   -6.1,   -5.2,   -6.2,   -6.3,  999.0,   -8.0,   -9.6,  -10.6,  -12.3,  999.0,   -8.4,   -8.7,   -7.9,   -7.9,   -7.4,   -5.8,   -4.9,   -4.9,   -5.1,   -5.7,   -6.4,   -7.5,   -8.2,   -6.6,   -3.8,   -1.8,    0.1,  999.0,  999.0,  999.0,  999.0,  999.0,  999.0,   15.8,   15.4,   17.0,   17.4,   19.2,   19.9,   21.5,   21.7,   23.2,   24.0,   25.8,   26.3,   27.0,   27.5,   28.0,   28.5,   28.4,   28.9,   29.3,   29.3,   29.7,   30.2,   31.3,   32.0,   32.6,   32.8,   31.7,   34.0,   36.8,   37.2,  999.0,  999.0,  999.0,  999.0,  999.0,  999.0,  999.0,  999.0,  999.0
2012/06/08 19:00,  999.0,  999.0,  999.0,  999.0,  999.0,   -6.0,   -6.4,   -6.3,   -6.4,   -6.6,   -6.8,   -6.4,   -6.8,   -8.1,  -10.4,  -11.9,  -12.8,  -10.7,   -9.1,   -8.3,   -8.0,   -8.5,   -7.3,   -1.3,   -0.6,   -3.1,   -5.4,   -6.0,   -7.2,   -7.5,   -5.0,   -1.9,   -0.1,    1.3,    2.4,    3.4,    3.4,    4.2,    5.3,    6.8,    8.8,   12.0,   14.3,   17.0,   19.2,   21.2,   22.4,   23.1,   22.8,   22.6,   22.9,   24.0,   24.5,   24.8,   24.6,   24.5,   24.6,   23.7,   24.0,   24.7,   26.2,   26.4,   27.1,   26.5,   26.9,   27.5,   28.5,   29.3,   30.1,   31.2,   30.4,   31.3,   34.2,   31.4,  999.0,   31.9,   34.1,  999.0,  999.0,  999.0
2012/06/08 19:10,  -10.4,  -10.3,   -8.9,   -7.9,   -7.1,   -8.1,   -5.5,   -5.1,   -5.7,   -6.3,   -6.6,   -7.3,   -7.8,   -8.9,  -10.8,  -13.0,  -12.2,  -10.0,   -7.5,   -7.1,   -7.1,   -6.8,   -5.6,   -6.1,   -4.8,   -6.1,   -6.0,   -6.5,   -6.8,   -5.4,   -2.2,    1.2,    2.7,    2.4,    2.8,    2.6,    3.5,    5.2,    5.9,    7.2,    9.9,   12.4,   14.5,   16.8,   18.9,   20.0,   21.9,   22.3,   22.0,   22.6,   23.0,   23.0,   23.0,   23.6,   25.9,   26.7,   28.3,   29.5,   30.9,   29.4,   31.4,   31.4,   33.9,   33.4,   32.9,  999.0,  999.0,  999.0,  999.0,  999.0,  999.0,  999.0,  999.0,  999.0,  999.0,  999.0,  999.0,  999.0,  999.0,  999.0
2012/06/08 19:20,   -7.9,  -10.1,   -7.7,   -6.4,   -5.4,   -5.4,   -6.1,   -5.9,   -6.1,   -5.8,   -5.2,   -6.0,   -7.4,   -8.4,   -9.4,  -10.8,  -12.5,  -13.9,  -12.2,   -9.2,   -8.0,   -7.5,   -7.2,   -7.1,   -6.6,   -6.4,   -7.0,   -6.5,   -6.1,   -4.3,   -2.3,    1.0,    2.5,  999.0,  999.0,    2.0,    2.9,    4.0,    4.7,    5.8,    8.4,   10.9,   13.5,   14.8,   15.8,   16.8,   17.4,   19.3,   21.5,   22.4,   23.2,   24.2,   24.4,   26.7,   27.9,   26.5,   27.7,   26.0,   27.2,   28.3,   28.3,   30.7,   29.6,   31.7,   32.3,   31.7,   32.2,  999.0,   33.4,  999.0,   34.2,   35.8,  999.0,  999.0,  999.0,  999.0,  999.0,  999.0,  999.0,  999.0
2012/06/08 19:30,   -6.9,   -7.4,   -8.2,   -8.2,   -7.5,   -5.9,   -5.8,   -6.1,   -6.0,   -5.3,   -6.2,   -8.0,   -9.0,  -11.0,   -9.4,  -10.9,  -11.0,  -11.7,  -12.6,  -11.1,   -9.2,   -7.8,   -7.1,   -7.0,   -7.2,   -6.3,   -6.0,   -3.3,   -2.3,   -1.1,    1.1,    1.6,    2.3,    2.4,    3.2,    3.3,    4.5,    5.5,    7.4,    8.2,    9.1,   12.1,   14.3,   16.6,   18.8,   19.7,   20.5,   21.6,   22.9,   24.7,   27.9,   27.5,   30.4,   31.5,   32.9,   35.9,   34.0,   34.7,   33.7,   32.6,   31.6,   31.1,   30.0,   28.2,   28.7,   28.5,   31.1,   31.2,   34.1,  999.0,  999.0,  999.0,  999.0,  999.0,  999.0,  999.0,  999.0,  999.0,  999.0,  999.0
2012/06/08 19:40,   -8.4,   -9.1,   -8.9,   -8.7,   -7.5,   -6.5,   -7.6,   -8.2,   -8.3,   -6.5,   -6.2,   -6.4,   -6.7,   -7.1,   -7.4,   -7.0,   -8.4,   -9.8,  -10.0,  -10.3,  -10.1,  -10.2,   -9.7,   -9.2,   -8.0,   -7.0,   -4.8,   -2.4,   -1.1,    0.0,    1.2,    4.1,    5.6,  999.0,    8.9,    9.9,   12.4,   14.5,   15.7,   16.4,   16.5,   17.2,   18.3,   19.9,   21.4,   23.2,   24.2,   25.4,   27.2,   28.8,   30.4,   30.8,   31.7,   33.2,   32.1,   32.2,   32.6,  999.0,  999.0,  999.0,  999.0,  999.0,  999.0,  999.0,  999.0,  999.0,  999.0,  999.0,  999.0,  999.0,  999.0,  999.0,  999.0,  999.0,  999.0,  999.0,  999.0,  999.0,  999.0,  999.0
2012/06/08 19:50,   -8.2,   -8.8,   -9.4,   -9.2,   -7.5,   -7.5,   -8.0,   -8.5,   -8.3,   -7.4,   -6.7,   -7.3,   -8.1,   -8.1,   -8.6,   -9.2,   -9.7,   -9.6,  -11.3,   -9.0,   -9.5,   -9.7,  -10.7,   -8.5,   -6.6,   -2.8,   -1.9,   -0.3,    1.9,    2.7,    3.5,    5.0,    6.2,    7.5,    9.0,    8.8,    9.9,   11.8,   13.3,   14.6,   16.1,   17.7,   19.6,   21.1,   23.3,   25.9,   28.1,   29.4,   30.2,   29.3,   30.6,   32.5,   34.2,  999.0,  999.0,  999.0,   32.2,   33.7,   31.8,   32.2,  999.0,  999.0,  999.0,  999.0,  999.0,  999.0,  999.0,  999.0,  999.0,  999.0,  999.0,  999.0,  999.0,  999.0,  999.0,  999.0,  999.0,  999.0,  999.0,  999.0
2012/06/08 20:00,   -9.6,   -9.7,   -8.8,   -8.9,   -8.0,   -7.9,   -8.8,   -9.8,  -10.4,  -10.0,   -9.2,   -8.7,   -9.5,   -6.0,   -6.3,   -6.1,   -8.3,   -7.2,   -9.5,   -9.7,  -10.0,   -9.7,   -9.9,   -9.4,   -8.3,   -5.8,   -4.0,   -2.1,   -0.8,    1.1,    2.5,    3.8,    4.7,    6.9,    8.4,    8.5,    8.4,    9.9,   11.9,   13.9,   15.1,   16.5,   19.3,   22.5,   25.7,   26.7,   27.5,   27.7,   28.2,   29.2,   31.8,   34.6,   34.1,  999.0,  999.0,  999.0,  999.0,  999.0,  999.0,  999.0,  999.0,  999.0,  999.0,  999.0,  999.0,  999.0,  999.0,  999.0,  999.0,  999.0,  999.0,  999.0,  999.0,  999.0,  999.0,  999.0,  999.0,  999.0,  999.0,  999.0
2012/06/08 20:10,  -11.3,  -10.6,   -9.6,   -9.5,   -8.4,   -7.5,   -8.8,   -9.4,  -10.0,   -9.1,   -8.4,   -7.9,   -8.5,   -9.8,   -9.7,  -10.3,  -11.7,  -12.1,  -12.3,  -11.6,  -11.4,  -12.1,  -10.6,   -8.3,   -7.1,   -4.2,   -4.4,   -1.2,    0.6,    1.6,    2.8,    3.9,    4.9,    6.4,    7.9,   10.5,   10.5,   13.4,   14.4,   16.0,   16.8,   20.1,   22.1,   24.5,   24.2,   26.2,   27.4,   29.5,   30.6,   31.6,   33.5,   34.4,  999.0,  999.0,  999.0,  999.0,  999.0,  999.0,  999.0,  999.0,  999.0,  999.0,  999.0,  999.0,  999.0,  999.0,  999.0,  999.0,  999.0,  999.0,  999.0,  999.0,  999.0,  999.0,  999.0,  999.0,  999.0,  999.0,  999.0,  999.0
2012/06/08 20:20,  -10.4,  -10.9,   -9.2,   -8.9,   -7.9,   -7.4,   -7.8,   -8.2,   -9.1,   -8.7,   -7.6,   -7.6,   -8.1,   -9.4,  -10.4,  -10.7,  -10.6,   -9.9,  -10.2,  -10.4,   -9.2,   -7.4,   -6.1,   -6.0,   -5.5,   -4.9,   -3.7,   -1.2,   -0.6,    0.4,    1.8,    2.6,    3.7,    4.6,    6.4,    7.2,    8.0,    9.9,   13.4,   16.4,   18.1,   19.5,   20.3,   22.2,   24.0,   26.0,   27.4,   30.8,   32.0,   34.0,   33.9,   33.8,   35.8,   36.3,   36.3,  999.0,  999.0,  999.0,  999.0,  999.0,  999.0,  999.0,  999.0,  999.0,  999.0,  999.0,  999.0,  999.0,  999.0,  999.0,  999.0,  999.0,  999.0,  999.0,  999.0,  999.0,  999.0,  999.0,  999.0,  999.0
2012/06/08 20:30,  999.0,  -10.0,   -9.6,   -8.5,   -7.6,   -7.0,   -7.3,   -8.4,   -9.3,   -9.2,   -9.6,   -8.4,   -7.8,   -8.2,   -9.3,  -10.1,  -11.0,  -11.3,  -12.0,  -11.7,   -9.1,   -7.1,   -4.4,   -3.5,   -2.7,   -1.8,   -1.5,   -1.0,   -0.7,   -0.4,    0.0,    1.0,    2.4,    2.7,    3.7,    5.4,    7.5,   11.1,   15.0,   17.6,   19.2,   21.3,   23.4,   25.1,   26.4,   27.6,   29.2,   30.8,   31.9,   31.4,  999.0,  999.0,  999.0,  999.0,  999.0,  999.0,  999.0,  999.0,  999.0,  999.0,  999.0,  999.0,  999.0,  999.0,  999.0,  999.0,  999.0,  999.0,  999.0,  999.0,  999.0,  999.0,  999.0,  999.0,  999.0,  999.0,  999.0,  999.0,  999.0,  999.0
2012/06/08 20:40,  -11.2,  -11.4,   -9.6,   -9.0,   -8.2,   -8.3,   -9.0,   -9.4,   -9.8,   -9.5,   -8.9,   -8.6,   -8.1,   -8.1,   -8.7,   -9.1,  -10.1,   -9.8,   -9.5,   -8.1,   -5.6,   -4.2,   -3.5,   -3.0,   -2.1,   -1.6,   -1.1,    0.0,   -0.4,    0.6,    2.0,    3.5,    5.8,    7.7,    7.0,    9.8,   11.8,   13.6,   15.7,   17.5,   20.1,   21.9,   23.7,   25.2,   26.2,   28.2,   29.1,   31.7,   32.3,   33.2,   35.5,   34.2,   35.0,   34.2,   34.9,   35.2,  999.0,  999.0,   39.7,  999.0,  999.0,  999.0,  999.0,  999.0,  999.0,  999.0,  999.0,  999.0,  999.0,  999.0,  999.0,  999.0,  999.0,  999.0,  999.0,  999.0,  999.0,  999.0,  999.0,  999.0
2012/06/08 20:50,  -11.1,  -10.7,   -9.4,   -8.1,   -8.8,   -7.2,   -7.9,   -8.8,   -9.7,   -9.6,   -7.8,   -6.4,   -5.6,   -6.8,   -7.2,   -7.5,   -7.4,   -6.9,   -4.5,   -2.9,   -2.6,   -2.0,    0.5,    0.6,   -0.1,   -0.3,   -0.7,   -0.1,    1.7,    2.6,    4.3,    4.9,  999.0,  999.0,  999.0,   12.0,   14.2,   15.3,   16.7,   18.4,   20.0,   21.8,   23.2,   24.3,   25.6,   26.5,   27.5,   28.9,   29.2,   29.0,   29.5,   31.3,   32.0,   32.3,   32.4,   31.8,   32.1,   31.1,   29.0,   30.7,   33.2,   32.1,   33.3,   34.1,   34.6,   35.1,   36.7,   38.6,  999.0,  999.0,  999.0,  999.0,  999.0,  999.0,  999.0,  999.0,  999.0,  999.0,  999.0,  999.0
2012/06/08 21:00,  -11.8,  -11.4,  -10.3,  -10.0,   -9.6,   -9.7,  -11.1,  -11.2,  -10.8,  -11.1,  -10.1,   -8.9,   -7.3,   -6.7,   -6.8,   -6.9,   -6.4,   -5.0,   -4.2,   -2.5,   -2.0,   -0.9,   -0.5,   -0.1,    0.0,   -0.9,   -2.0,   -1.5,   -1.0,    0.8,    2.9,    3.8,    9.4,   12.5,   13.9,   12.6,   14.1,   15.1,   15.3,   15.8,   17.0,   18.0,   19.2,   21.2,   23.2,   23.8,   26.2,   26.9,   28.3,   29.2,   29.3,   29.7,   29.6,   29.3,   29.3,   28.9,   27.3,   28.1,   28.2,   29.3,   30.1,   31.3,   32.5,   35.2,   33.8,   35.6,   36.3,   36.9,  999.0,  999.0,  999.0,  999.0,  999.0,  999.0,  999.0,  999.0,  999.0,  999.0,  999.0,  999.0
2012/06/08 21:10,  -12.3,  -11.3,   -9.7,   -9.0,   -8.1,   -8.9,   -9.6,  -11.7,  -12.7,  -12.3,  -10.9,   -9.0,   -9.0,   -8.4,   -8.2,   -7.7,   -7.2,   -5.5,   -2.7,   -0.8,   -0.1,   -0.5,   -2.1,   -3.4,   -4.2,   -3.2,   -2.7,   -0.9,    1.9,    4.0,    5.9,    7.5,    8.4,    9.0,    9.8,   11.6,   12.8,   13.4,   13.8,   14.0,   16.4,   19.1,   21.5,   23.8,   27.0,   27.4,   28.2,   29.0,   30.0,  999.0,  999.0,  999.0,  999.0,  999.0,  999.0,  999.0,  999.0,  999.0,  999.0,  999.0,  999.0,  999.0,  999.0,  999.0,  999.0,  999.0,  999.0,  999.0,  999.0,  999.0,  999.0,  999.0,  999.0,  999.0,  999.0,  999.0,  999.0,  999.0,  999.0,  999.0
2012/06/08 21:20,  -12.1,  -11.4,  -10.0,   -9.0,   -8.3,   -7.2,   -9.2,  -10.8,  -11.6,  -12.0,  -11.9,  -10.2,   -9.3,   -8.3,   -7.6,   -8.2,   -6.2,   -4.4,   -2.4,   -1.1,   -1.1,   -1.9,   -2.4,   -3.1,   -3.1,   -1.4,   -0.9,    0.6,    2.4,    3.9,    4.9,    5.0,    5.8,    5.0,   10.7,  999.0,  999.0,   14.2,   15.7,   16.5,   20.2,   19.9,   21.2,   23.2,   24.2,   25.3,   24.9,   26.0,   27.0,   27.2,   28.2,   28.6,   29.2,   30.2,   30.6,   32.6,   28.2,   30.8,   29.9,  999.0,  999.0,  999.0,  999.0,  999.0,  999.0,  999.0,  999.0,  999.0,  999.0,  999.0,  999.0,  999.0,  999.0,  999.0,  999.0,  999.0,  999.0,  999.0,  999.0,  999.0
2012/06/08 21:30,  -11.9,  -10.7,  -10.9,   -9.7,   -8.8,   -7.9,   -8.2,   -9.0,  -10.3,  -11.0,  -12.4,  -11.6,  -10.8,   -9.2,   -7.6,   -6.5,   -6.4,   -4.9,   -3.0,   -1.9,   -1.6,   -1.9,   -2.7,   -1.8,   -0.3,    0.7,    1.5,    1.8,    2.7,    3.5,    4.8,    6.1,    6.7,    7.7,    9.2,   10.6,   11.9,   13.8,   15.7,   17.4,   19.1,   23.9,   23.8,   23.5,   24.7,   25.2,   27.4,   27.4,   28.2,   28.7,   27.8,   28.9,   28.3,   28.5,   27.9,   27.7,   26.2,   24.1,   23.8,   24.1,   24.4,   23.7,   22.8,   24.4,   24.9,   25.1,   25.2,   25.6,   27.1,   28.8,   29.3,   31.8,   33.9,   35.0,   38.0,   38.0,   38.7,   39.1,   39.9,  999.0
2012/06/08 21:40,  -12.0,  -12.1,  -11.6,  -10.9,   -9.8,   -8.3,   -8.2,   -8.2,   -9.0,   -9.8,  -11.1,  -12.2,  -11.2,  -10.2,  -10.0,   -8.9,   -8.1,   -7.9,   -6.6,   -4.8,   -2.9,   -2.1,   -2.9,   -2.5,   -1.4,   -0.6,   -0.7,    1.0,    1.5,    2.6,    4.5,    6.7,    8.8,   10.1,   13.1,   14.0,   16.9,   19.0,   22.6,   23.8,   25.3,   25.4,   25.1,   26.3,   26.6,   25.9,   24.6,   24.5,   25.6,   26.9,   28.1,   29.3,   30.1,   31.4,   32.6,  999.0,  999.0,  999.0,  999.0,  999.0,  999.0,  999.0,  999.0,  999.0,  999.0,  999.0,  999.0,  999.0,  999.0,  999.0,  999.0,  999.0,  999.0,  999.0,  999.0,  999.0,  999.0,  999.0,  999.0,  999.0
2012/06/08 21:50,  -11.2,  -11.3,  -11.9,  -11.6,  -10.6,   -9.9,   -8.2,   -7.0,   -7.2,   -9.1,   -9.9,  -10.5,   -9.7,   -9.4,   -9.0,   -8.5,   -8.1,   -6.5,   -5.2,   -4.4,   -2.9,   -1.8,   -2.2,   -2.4,   -2.2,   -1.5,   -1.1,    1.2,    3.3,    4.0,    6.2,   10.8,   12.4,   14.3,   16.6,   18.6,   22.3,   22.4,   23.6,   25.1,   25.2,   25.4,   25.5,   24.5,   24.0,   23.9,   24.0,   24.3,   24.2,   25.0,   26.3,   28.1,   30.1,   31.5,   31.8,   32.9,   33.4,   34.4,   34.6,   33.8,   31.5,  999.0,  999.0,  999.0,  999.0,  999.0,  999.0,  999.0,  999.0,  999.0,  999.0,  999.0,  999.0,  999.0,  999.0,  999.0,  999.0,  999.0,  999.0,  999.0
2012/06/08 22:00,  -11.5,  -11.5,  -11.7,  -11.4,  -11.1,   -9.5,   -8.1,   -7.3,   -6.5,   -7.1,   -8.3,   -8.0,   -8.0,   -6.4,   -6.4,   -6.2,   -6.1,   -6.7,   -5.9,   -5.1,   -4.6,   -4.8,   -5.0,  999.0,  999.0,  999.0,  999.0,  999.0,  999.0,  999.0,  999.0,  999.0,   12.0,   12.1,   14.4,   13.0,   17.6,   21.5,   22.5,   23.6,   24.5,   28.8,   28.7,   28.6,   28.2,   30.1,   27.9,   28.6,   29.5,   33.0,   30.7,   33.1,   37.4,   39.8,  999.0,  999.0,   36.8,   35.7,  999.0,   36.0,  999.0,  999.0,  999.0,  999.0,  999.0,  999.0,  999.0,  999.0,  999.0,  999.0,  999.0,  999.0,  999.0,  999.0,  999.0,  999.0,  999.0,  999.0,  999.0,  999.0
2012/06/08 22:10,  -12.6,  -12.6,  -12.9,  -10.2,   -9.5,  -11.3,  -10.0,   -7.6,   -7.1,   -7.1,   -6.9,   -8.0,   -6.4,   -5.8,   -4.2,   -5.3,   -5.7,   -5.8,   -6.3,   -6.2,   -5.8,   -5.9,   -5.4,   -5.0,   -4.0,   -2.5,   -0.2,    1.1,    4.2,  999.0,  999.0,    2.3,    6.8,    9.5,   14.6,   19.6,   24.5,   25.7,   26.2,   29.1,   29.6,   28.9,   29.7,   30.2,   31.0,   31.5,   31.4,   32.5,   33.9,   34.5,   33.9,   35.2,   34.6,   36.6,   34.7,   33.3,  999.0,   38.0,  999.0,   34.8,  999.0,   37.1,   39.2,   41.4,  999.0,  999.0,  999.0,  999.0,  999.0,  999.0,  999.0,  999.0,  999.0,  999.0,  999.0,  999.0,  999.0,  999.0,  999.0,  999.0
2012/06/08 22:20,  -10.8,  -11.8,  -11.4,   -9.5,  -10.0,  -10.1,  -10.8,   -9.2,   -8.0,   -6.8,   -5.5,   -4.2,   -4.2,   -3.4,   -2.2,   -1.7,   -0.8,   -1.6,   -1.7,   -2.2,   -1.6,   -1.1,   -0.2,    1.9,    3.6,    6.0,    6.4,    5.3,    8.0,    4.8,    6.9,    6.2,   12.8,   10.8,   14.8,   16.3,   16.5,   20.6,   23.6,   25.3,   25.2,   26.9,   28.3,   28.7,   29.6,   30.3,   30.9,   31.8,   32.9,   35.2,   34.8,   35.9,   35.3,   36.2,   37.7,   38.1,   39.6,   38.3,  999.0,   39.7,  999.0,  999.0,  999.0,  999.0,  999.0,  999.0,  999.0,  999.0,  999.0,  999.0,  999.0,  999.0,  999.0,  999.0,  999.0,  999.0,  999.0,  999.0,  999.0,  999.0
2012/06/08 22:30,  -10.2,  -11.7,  -11.4,  -10.4,  -10.3,  -10.1,   -9.4,   -8.0,   -6.3,   -5.4,   -4.0,   -2.7,   -2.5,   -2.0,   -1.3,    0.0,    0.5,    0.5,    0.4,    0.5,    2.1,    2.1,    2.9,    3.8,    4.2,    4.8,    5.3,    7.3,    8.8,    9.1,    8.8,   10.5,   11.4,   12.5,   14.7,   15.8,   19.1,   21.2,   22.2,   23.5,   23.8,   25.4,   27.9,   29.4,   31.0,   32.2,   33.9,   34.5,   33.8,   34.8,   34.3,   33.0,   37.9,   33.2,   36.8,   38.8,   38.4,   42.3,   41.2,   41.8,  999.0,  999.0,  999.0,  999.0,  999.0,  999.0,  999.0,  999.0,  999.0,  999.0,  999.0,  999.0,  999.0,  999.0,  999.0,  999.0,  999.0,  999.0,  999.0,  999.0
2012/06/08 22:40,  -11.0,  -12.2,  -12.7,  -12.1,  -11.3,   -9.8,   -8.2,   -7.6,   -6.6,   -5.1,   -4.4,   -3.9,   -3.5,   -2.8,   -2.0,    0.1,    1.5,    2.9,    4.4,    4.5,    4.7,    4.9,    5.8,    6.4,    7.5,    7.6,    8.0,    8.7,    8.9,   11.3,    9.6,    9.5,   11.5,   13.2,   14.6,   16.0,   16.4,   21.0,   22.5,   22.0,   22.3,   22.9,   24.9,   24.2,   26.2,   28.4,   28.9,   30.4,   30.7,   32.4,   32.4,   32.7,   34.0,   31.9,   31.5,   32.3,   33.7,   34.0,   35.4,   36.8,   37.1,   37.6,   37.5,   40.1,  999.0,  999.0,  999.0,  999.0,  999.0,   37.3,  999.0,  999.0,   31.9,   32.1,   32.1,   31.4,   33.6,   33.9,   35.6,  999.0
2012/06/08 22:50,  -12.5,  -13.4,  -13.4,  -12.2,  -10.3,   -8.7,   -8.0,   -7.3,   -7.1,   -7.0,   -6.7,   -6.3,   -6.3,   -4.4,   -1.3,    0.1,    2.8,    6.0,    7.3,    7.7,    8.8,   11.1,   12.0,   11.9,   12.5,   12.9,   12.7,   12.0,   11.3,   11.4,   13.0,   14.1,   15.3,   18.5,   19.9,   22.0,   22.6,   22.2,   24.5,   26.2,   27.1,   27.2,   27.0,   27.6,   27.9,   29.2,   28.3,   29.1,   29.5,   30.4,   30.4,   30.2,   29.0,   29.3,   28.9,   30.8,   30.0,   30.2,   29.5,   29.4,   30.7,   31.9,   31.4,   31.6,   32.1,   31.8,   31.4,   32.1,   32.3,   31.2,   32.7,   30.7,  999.0,  999.0,  999.0,  999.0,  999.0,  999.0,  999.0,  999.0
2012/06/08 23:00,  -12.0,  -13.3,  -13.9,  -12.8,  -11.3,  -10.4,   -9.7,   -9.6,   -9.4,   -8.9,   -8.4,   -6.8,   -5.6,   -2.5,    0.2,    2.6,    5.0,    6.9,    9.4,   12.5,   11.9,   11.1,    9.8,   10.7,   12.2,   12.4,   12.9,   11.5,   12.0,   12.6,   12.3,   13.2,   14.7,   16.7,   17.6,   19.4,   20.7,   24.2,   24.2,   25.9,   26.8,   27.7,   27.0,   28.8,   28.0,   28.3,   28.2,   28.2,   28.8,   28.7,   27.7,   27.4,   27.7,   27.8,   28.2,   27.8,  999.0,   29.9,  999.0,   31.0,   32.5,   35.4,   35.2,   33.7,   32.2,   34.8,   37.8,  999.0,  999.0,  999.0,  999.0,  999.0,  999.0,  999.0,  999.0,  999.0,  999.0,  999.0,  999.0,  999.0
2012/06/08 23:10,  -11.7,  -13.4,  -14.0,  -13.0,  -11.5,  -11.3,  -10.6,  -11.0,  -10.8,  -10.3,   -9.7,   -8.0,   -7.1,   -4.9,   -2.6,   -0.9,    1.9,    5.2,    7.9,    6.8,    8.1,    8.1,    8.6,    9.9,   10.3,   11.5,   12.5,   12.8,   14.3,   13.2,   14.2,   15.9,   17.0,   17.7,   18.9,   21.9,   20.0,   22.9,   25.0,   27.1,   26.9,   26.5,   27.2,   27.1,   27.6,   29.1,   29.0,   28.6,   28.1,   28.3,   29.5,   29.4,   28.9,  999.0,   30.3,  999.0,   31.7,   32.0,   33.9,   31.9,   33.6,   34.8,  999.0,   36.3,   33.2,   34.1,   34.6,   33.4,   35.8,  999.0,  999.0,  999.0,  999.0,  999.0,  999.0,  999.0,  999.0,  999.0,  999.0,  999.0
2012/06/08 23:20,  -12.6,  -13.3,  -13.5,  -12.2,  -11.6,  -11.2,  -11.2,   -9.9,   -9.6,  -10.1,   -8.3,   -7.7,   -7.3,   -6.8,   -4.9,   -2.7,   -0.3,    4.3,    6.6,    9.0,   11.1,   11.8,   11.9,   12.3,   12.0,   14.0,   14.4,   15.1,   17.8,   16.4,   16.5,   18.6,   19.9,   18.6,   18.3,   18.5,   19.6,   19.8,   20.5,   21.1,   21.7,   21.7,   22.2,   22.6,   22.6,   22.4,   22.3,   22.9,   23.5,   24.0,   24.3,   24.7,   25.8,   26.8,   28.1,   29.8,   29.7,   29.7,   29.6,   32.6,   31.5,   33.5,   32.6,   32.5,   33.1,   33.1,   30.5,   30.4,  999.0,  999.0,  999.0,  999.0,  999.0,  999.0,  999.0,  999.0,  999.0,  999.0,  999.0,  999.0
2012/06/08 23:30,  -13.5,  -14.3,  -13.9,  -12.4,  -11.2,  -10.6,  -10.7,  -10.2,   -9.8,   -9.5,   -9.0,   -8.6,   -8.1,   -7.6,   -6.2,   -3.1,   -0.6,    1.1,    3.3,    7.2,    9.8,   11.3,   11.8,   13.4,   14.3,   14.8,   15.3,   15.8,   16.8,   18.8,   19.5,   19.8,   20.5,   20.1,   21.4,   22.3,   23.1,   23.8,   23.4,   23.0,   22.8,   22.9,   23.0,   23.1,   23.3,   23.3,   23.8,   24.1,   24.3,   24.7,   24.8,   25.3,   25.8,   25.4,   25.1,   24.8,   24.1,   25.7,   24.9,   26.2,   27.7,   27.4,   26.3,   29.4,   26.3,   27.6,   27.5,   28.7,   29.0,   30.5,   30.6,   33.2,  999.0,   33.2,  999.0,   32.6,  999.0,  999.0,  999.0,  999.0
2012/06/08 23:40,  -12.8,  -14.8,  -14.3,  -13.5,  -12.7,  -11.9,  -10.7,  -10.7,   -8.9,   -9.2,   -9.5,   -8.2,   -8.3,   -6.6,   -4.8,   -3.3,   -0.6,    1.6,    3.7,    6.8,    8.4,    9.6,   10.9,   15.3,   15.8,   15.7,   17.4,   17.8,   19.1,   20.0,   19.5,   21.1,   20.3,   20.4,   20.5,   19.9,   21.8,   22.3,   22.6,   22.8,   22.8,   23.3,   23.6,   23.5,   24.0,   23.6,   24.0,   24.5,   24.7,   25.6,   25.7,   25.6,   25.9,   24.7,   22.1,   24.3,   25.0,   26.7,   26.8,   27.0,   25.0,   25.9,   27.4,   27.1,   27.7,   28.6,   31.1,   27.9,   32.3,   27.7,   31.9,   29.7,   35.3,   34.3,  999.0,  999.0,  999.0,  999.0,  999.0,  999.0
2012/06/08 23:50,  -12.8,  -13.1,  -15.9,  -14.6,  -14.7,  -12.8,  -11.8,  -10.1,  -10.8,  -10.5,   -9.9,   -9.2,   -8.3,   -7.8,   -6.0,   -3.3,   -0.6,    2.3,    5.4,    7.6,    8.1,    9.7,   13.3,   15.2,   15.6,   17.2,   17.0,   16.7,   18.6,   18.7,   18.1,   19.2,   19.5,   20.1,   20.3,   20.5,   21.1,   21.5,   20.7,   20.6,   19.9,   20.4,   20.7,   20.5,   21.2,   22.5,   21.2,   23.0,   24.0,   25.8,   23.2,   25.2,   22.4,   22.9,   22.7,   24.3,   25.6,   25.4,   26.0,   25.9,   27.6,   25.0,   18.6,   23.9,   29.6,   29.8,   27.7,   22.9,   28.4,   30.0,   34.4,   33.5,   34.9,  999.0,  999.0,  999.0,  999.0,  999.0,  999.0,  999.0
